Wetterdaten: Freitag, 08.02.2013
Datum Zeit Temp. Aussen +5cm Feuchte Auss BlattFeu 1 Luftdruck Regen Sonnenschein UV Solar Windben
08.02.2013 00:00 0,8 C -0,4 C 98 % 0 lf 1011,6 hPa 0,0 l/m 0 min 0,0 UV-I 0 W/m 10,3 km/h (2 Bft)
08.02.2013 00:02 0,8 C -0,4 C 98 % 0 lf 1011,5 hPa 0,0 l/m 0 min 0,0 UV-I 0 W/m 0,0 km/h (0 Bft)
08.02.2013 00:06 0,8 C -0,4 C 98 % 0 lf 1011,5 hPa 0,0 l/m 0 min 0,0 UV-I 0 W/m 5,1 km/h (1 Bft)
08.02.2013 00:08 0,7 C -0,4 C 98 % 0 lf 1011,5 hPa 0,0 l/m 0 min 0,0 UV-I 0 W/m 5,1 km/h (1 Bft)
08.02.2013 00:10 0,7 C -0,4 C 98 % 0 lf 1011,5 hPa 0,0 l/m 0 min 0,0 UV-I 0 W/m 0,0 km/h (0 Bft)
08.02.2013 00:12 0,7 C -0,4 C 98 % 0 lf 1011,5 hPa 0,0 l/m 0 min 0,0 UV-I 0 W/m 5,1 km/h (1 Bft)
08.02.2013 00:14 0,7 C -0,4 C 98 % 0 lf 1011,4 hPa 0,0 l/m 0 min 0,0 UV-I 0 W/m 0,0 km/h (0 Bft)
08.02.2013 00:16 0,7 C -0,4 C 98 % 0 lf 1011,5 hPa 0,0 l/m 0 min 0,0 UV-I 0 W/m 2,6 km/h (1 Bft)
08.02.2013 00:18 0,7 C -0,4 C 98 % 0 lf 1011,4 hPa 0,0 l/m 0 min 0,0 UV-I 0 W/m 7,7 km/h (2 Bft)
08.02.2013 00:20 0,7 C -0,4 C 98 % 0 lf 1011,4 hPa 0,0 l/m 0 min 0,0 UV-I 0 W/m 5,1 km/h (1 Bft)
08.02.2013 00:22 0,7 C -0,4 C 98 % 0 lf 1011,3 hPa 0,0 l/m 0 min 0,0 UV-I 0 W/m 0,0 km/h (0 Bft)
08.02.2013 00:24 0,7 C -0,4 C 98 % 0 lf 1011,4 hPa 0,0 l/m 0 min 0,0 UV-I 0 W/m 2,6 km/h (1 Bft)
08.02.2013 00:26 0,7 C -0,4 C 98 % 0 lf 1011,4 hPa 0,0 l/m 0 min 0,0 UV-I 0 W/m 0,0 km/h (0 Bft)
08.02.2013 00:28 0,7 C -0,4 C 98 % 0 lf 1011,3 hPa 0,0 l/m 0 min 0,0 UV-I 0 W/m 5,1 km/h (1 Bft)
08.02.2013 00:30 0,7 C -0,4 C 98 % 0 lf 1011,3 hPa 0,0 l/m 0 min 0,0 UV-I 0 W/m 0,0 km/h (0 Bft)
08.02.2013 00:32 0,7 C -0,4 C 98 % 0 lf 1011,3 hPa 0,0 l/m 0 min 0,0 UV-I 0 W/m 2,6 km/h (1 Bft)
08.02.2013 00:34 0,7 C -0,4 C 98 % 0 lf 1011,2 hPa 0,0 l/m 0 min 0,0 UV-I 0 W/m 0,0 km/h (0 Bft)
08.02.2013 00:36 0,7 C -0,4 C 98 % 0 lf 1011,2 hPa 0,0 l/m 0 min 0,0 UV-I 0 W/m 5,1 km/h (1 Bft)
08.02.2013 00:38 0,7 C -0,4 C 98 % 0 lf 1011,2 hPa 0,0 l/m 0 min 0,0 UV-I 0 W/m 7,7 km/h (2 Bft)
08.02.2013 00:40 0,7 C -0,4 C 98 % 0 lf 1011,2 hPa 0,0 l/m 0 min 0,0 UV-I 0 W/m 2,6 km/h (1 Bft)
08.02.2013 00:42 0,7 C -0,4 C 98 % 0 lf 1011,2 hPa 0,0 l/m 0 min 0,0 UV-I 0 W/m 0,0 km/h (0 Bft)
08.02.2013 00:44 0,7 C -0,4 C 98 % 0 lf 1011,3 hPa 0,0 l/m 0 min 0,0 UV-I 0 W/m 2,6 km/h (1 Bft)
08.02.2013 00:46 0,7 C -0,4 C 98 % 0 lf 1011,2 hPa 0,0 l/m 0 min 0,0 UV-I 0 W/m 2,6 km/h (1 Bft)
08.02.2013 00:48 0,7 C -0,4 C 98 % 0 lf 1011,2 hPa 0,0 l/m 0 min 0,0 UV-I 0 W/m 0,0 km/h (0 Bft)
08.02.2013 00:50 0,7 C -0,4 C 98 % 0 lf 1011,2 hPa 0,0 l/m 0 min 0,0 UV-I 0 W/m 0,0 km/h (0 Bft)
08.02.2013 00:52 0,7 C -0,4 C 98 % 0 lf 1011,2 hPa 0,0 l/m 0 min 0,0 UV-I 0 W/m 2,6 km/h (1 Bft)
08.02.2013 00:54 0,7 C -0,4 C 98 % 0 lf 1011,2 hPa 0,0 l/m 0 min 0,0 UV-I 0 W/m 7,7 km/h (2 Bft)
08.02.2013 00:56 0,7 C -0,4 C 98 % 0 lf 1011,2 hPa 0,0 l/m 0 min 0,0 UV-I 0 W/m 5,1 km/h (1 Bft)
08.02.2013 00:58 0,7 C -0,4 C 98 % 0 lf 1011,2 hPa 0,0 l/m 0 min 0,0 UV-I 0 W/m 0,0 km/h (0 Bft)
08.02.2013 01:00 0,7 C -0,4 C 98 % 0 lf 1011,2 hPa 0,0 l/m 0 min 0,0 UV-I 0 W/m 5,1 km/h (1 Bft)
08.02.2013 01:02 0,7 C -0,4 C 98 % 0 lf 1011,1 hPa 0,0 l/m 0 min 0,0 UV-I 0 W/m 0,0 km/h (0 Bft)
08.02.2013 01:04 0,6 C -0,4 C 98 % 0 lf 1011,1 hPa 0,0 l/m 0 min 0,0 UV-I 0 W/m 7,7 km/h (2 Bft)
08.02.2013 01:06 0,6 C -0,4 C 98 % 0 lf 1011,1 hPa 0,0 l/m 0 min 0,0 UV-I 0 W/m 0,0 km/h (0 Bft)
08.02.2013 01:08 0,7 C -0,4 C 98 % 0 lf 1011,1 hPa 0,0 l/m 0 min 0,0 UV-I 0 W/m 5,1 km/h (1 Bft)
08.02.2013 01:10 0,6 C -0,4 C 98 % 0 lf 1011,1 hPa 0,0 l/m 0 min 0,0 UV-I 0 W/m 2,6 km/h (1 Bft)
08.02.2013 01:12 0,6 C -0,4 C 98 % 0 lf 1011,1 hPa 0,0 l/m 0 min 0,0 UV-I 0 W/m 0,0 km/h (0 Bft)
08.02.2013 01:14 0,6 C -0,4 C 98 % 0 lf 1011,1 hPa 0,0 l/m 0 min 0,0 UV-I 0 W/m 7,7 km/h (2 Bft)
08.02.2013 01:16 0,6 C -0,4 C 98 % 0 lf 1011,1 hPa 0,0 l/m 0 min 0,0 UV-I 0 W/m 2,6 km/h (1 Bft)
08.02.2013 01:18 0,6 C -0,4 C 98 % 0 lf 1011,1 hPa 0,0 l/m 0 min 0,0 UV-I 0 W/m 0,0 km/h (0 Bft)
08.02.2013 01:20 0,6 C -0,4 C 98 % 0 lf 1011,1 hPa 0,0 l/m 0 min 0,0 UV-I 0 W/m 5,1 km/h (1 Bft)
08.02.2013 01:22 0,6 C -0,4 C 98 % 0 lf 1011,1 hPa 0,0 l/m 0 min 0,0 UV-I 0 W/m 5,1 km/h (1 Bft)
08.02.2013 01:24 0,7 C -0,4 C 99 % 2 lf 1011,1 hPa 0,0 l/m 0 min 0,0 UV-I 0 W/m 5,1 km/h (1 Bft)
08.02.2013 01:26 0,7 C -0,4 C 99 % 3 lf 1011,0 hPa 0,0 l/m 0 min 0,0 UV-I 0 W/m 2,6 km/h (1 Bft)
08.02.2013 01:28 0,7 C -0,4 C 99 % 4 lf 1011,0 hPa 0,0 l/m 0 min 0,0 UV-I 0 W/m 7,7 km/h (2 Bft)
08.02.2013 01:30 0,7 C -0,4 C 99 % 11 lf 1011,0 hPa 0,0 l/m 0 min 0,0 UV-I 0 W/m 7,7 km/h (2 Bft)
08.02.2013 01:32 0,7 C -0,4 C 99 % 14 lf 1011,1 hPa 0,0 l/m 0 min 0,0 UV-I 0 W/m 7,7 km/h (2 Bft)
08.02.2013 01:34 0,6 C -0,4 C 99 % 14 lf 1011,1 hPa 0,0 l/m 0 min 0,0 UV-I 0 W/m 5,1 km/h (1 Bft)
08.02.2013 01:36 0,6 C -0,4 C 99 % 15 lf 1011,0 hPa 0,0 l/m 0 min 0,0 UV-I 0 W/m 18,0 km/h (3 Bft)
08.02.2013 01:38 0,6 C -0,4 C 99 % 15 lf 1010,9 hPa 0,0 l/m 0 min 0,0 UV-I 0 W/m 0,0 km/h (0 Bft)
08.02.2013 01:40 0,6 C -0,4 C 99 % 15 lf 1011,0 hPa 0,0 l/m 0 min 0,0 UV-I 0 W/m 5,1 km/h (1 Bft)
08.02.2013 01:42 0,6 C -0,4 C 99 % 15 lf 1011,0 hPa 0,0 l/m 0 min 0,0 UV-I 0 W/m 0,0 km/h (0 Bft)
08.02.2013 01:44 0,6 C -0,4 C 99 % 15 lf 1011,0 hPa 0,0 l/m 0 min 0,0 UV-I 0 W/m 5,1 km/h (1 Bft)
08.02.2013 01:46 0,6 C -0,4 C 99 % 15 lf 1011,0 hPa 0,0 l/m 0 min 0,0 UV-I 0 W/m 7,7 km/h (2 Bft)
08.02.2013 01:48 0,6 C -0,4 C 99 % 15 lf 1011,0 hPa 0,0 l/m 0 min 0,0 UV-I 0 W/m 5,1 km/h (1 Bft)
08.02.2013 01:50 0,6 C -0,4 C 99 % 15 lf 1011,0 hPa 0,0 l/m 0 min 0,0 UV-I 0 W/m 7,7 km/h (2 Bft)
08.02.2013 01:52 0,6 C -0,4 C 99 % 15 lf 1010,9 hPa 0,0 l/m 0 min 0,0 UV-I 0 W/m 5,1 km/h (1 Bft)
08.02.2013 01:54 0,6 C -0,4 C 98 % 15 lf 1011,0 hPa 0,0 l/m 0 min 0,0 UV-I 0 W/m 7,7 km/h (2 Bft)
08.02.2013 01:56 0,6 C -1,0 C 98 % 15 lf 1010,9 hPa 0,0 l/m 0 min 0,0 UV-I 0 W/m 7,7 km/h (2 Bft)
08.02.2013 01:58 0,6 C -1,0 C 98 % 15 lf 1010,9 hPa 0,0 l/m 0 min 0,0 UV-I 0 W/m 7,7 km/h (2 Bft)
08.02.2013 02:00 0,6 C -1,0 C 98 % 15 lf 1010,9 hPa 0,0 l/m 0 min 0,0 UV-I 0 W/m 2,6 km/h (1 Bft)
08.02.2013 02:02 0,6 C -1,0 C 98 % 15 lf 1010,9 hPa 0,0 l/m 0 min 0,0 UV-I 0 W/m 0,0 km/h (0 Bft)
08.02.2013 02:04 0,5 C -1,0 C 98 % 15 lf 1010,9 hPa 0,0 l/m 0 min 0,0 UV-I 0 W/m 5,1 km/h (1 Bft)
08.02.2013 02:06 0,5 C -1,0 C 98 % 15 lf 1010,9 hPa 0,0 l/m 0 min 0,0 UV-I 0 W/m 2,6 km/h (1 Bft)
08.02.2013 02:08 0,5 C -1,0 C 98 % 15 lf 1010,8 hPa 0,0 l/m 0 min 0,0 UV-I 0 W/m 5,1 km/h (1 Bft)
08.02.2013 02:10 0,5 C -1,0 C 98 % 15 lf 1010,9 hPa 0,0 l/m 0 min 0,0 UV-I 0 W/m 0,0 km/h (0 Bft)
08.02.2013 02:12 0,4 C -1,0 C 98 % 15 lf 1010,9 hPa 0,0 l/m 0 min 0,0 UV-I 0 W/m 0,0 km/h (0 Bft)
08.02.2013 02:14 0,4 C -1,0 C 98 % 15 lf 1010,9 hPa 0,0 l/m 0 min 0,0 UV-I 0 W/m 2,6 km/h (1 Bft)
08.02.2013 02:16 0,4 C -1,0 C 98 % 15 lf 1010,9 hPa 0,0 l/m 0 min 0,0 UV-I 0 W/m 0,0 km/h (0 Bft)
08.02.2013 02:18 0,4 C -1,0 C 98 % 15 lf 1010,9 hPa 0,0 l/m 0 min 0,0 UV-I 0 W/m 0,0 km/h (0 Bft)
08.02.2013 02:20 0,4 C -1,0 C 98 % 15 lf 1010,9 hPa 0,0 l/m 0 min 0,0 UV-I 0 W/m 2,6 km/h (1 Bft)
08.02.2013 02:22 0,4 C -1,0 C 98 % 15 lf 1010,9 hPa 0,0 l/m 0 min 0,0 UV-I 0 W/m 0,0 km/h (0 Bft)
08.02.2013 02:24 0,4 C -1,0 C 99 % 15 lf 1010,9 hPa 0,0 l/m 0 min 0,0 UV-I 0 W/m 2,6 km/h (1 Bft)
08.02.2013 02:26 0,4 C -1,0 C 99 % 15 lf 1010,9 hPa 0,0 l/m 0 min 0,0 UV-I 0 W/m 2,6 km/h (1 Bft)
08.02.2013 02:28 0,4 C -1,0 C 99 % 15 lf 1010,9 hPa 0,0 l/m 0 min 0,0 UV-I 0 W/m 0,0 km/h (0 Bft)
08.02.2013 02:30 0,4 C -1,0 C 99 % 15 lf 1010,9 hPa 0,0 l/m 0 min 0,0 UV-I 0 W/m 0,0 km/h (0 Bft)
08.02.2013 02:32 0,4 C -1,0 C 99 % 15 lf 1010,8 hPa 0,0 l/m 0 min 0,0 UV-I 0 W/m 0,0 km/h (0 Bft)
08.02.2013 02:34 0,4 C -1,0 C 99 % 15 lf 1010,8 hPa 0,0 l/m 0 min 0,0 UV-I 0 W/m 2,6 km/h (1 Bft)
08.02.2013 02:36 0,4 C -1,0 C 99 % 15 lf 1010,8 hPa 0,0 l/m 0 min 0,0 UV-I 0 W/m 0,0 km/h (0 Bft)
08.02.2013 02:38 0,4 C -1,0 C 99 % 15 lf 1010,7 hPa 0,0 l/m 0 min 0,0 UV-I 0 W/m 0,0 km/h (0 Bft)
08.02.2013 02:40 0,3 C -1,0 C 99 % 15 lf 1010,7 hPa 0,0 l/m 0 min 0,0 UV-I 0 W/m 2,6 km/h (1 Bft)
08.02.2013 02:42 0,3 C -1,0 C 99 % 15 lf 1010,7 hPa 0,0 l/m 0 min 0,0 UV-I 0 W/m 2,6 km/h (1 Bft)
08.02.2013 02:44 0,3 C -1,0 C 99 % 15 lf 1010,7 hPa 0,0 l/m 0 min 0,0 UV-I 0 W/m 0,0 km/h (0 Bft)
08.02.2013 02:46 0,3 C -1,0 C 99 % 15 lf 1010,7 hPa 0,0 l/m 0 min 0,0 UV-I 0 W/m 2,6 km/h (1 Bft)
08.02.2013 02:48 0,3 C -1,0 C 99 % 15 lf 1010,7 hPa 0,0 l/m 0 min 0,0 UV-I 0 W/m 0,0 km/h (0 Bft)
08.02.2013 02:50 0,3 C -1,0 C 99 % 15 lf 1010,7 hPa 0,0 l/m 0 min 0,0 UV-I 0 W/m 5,1 km/h (1 Bft)
08.02.2013 02:52 0,3 C -1,0 C 99 % 15 lf 1010,7 hPa 0,0 l/m 0 min 0,0 UV-I 0 W/m 2,6 km/h (1 Bft)
08.02.2013 02:54 0,3 C -1,0 C 99 % 15 lf 1010,6 hPa 0,0 l/m 0 min 0,0 UV-I 0 W/m 5,1 km/h (1 Bft)
08.02.2013 02:56 0,3 C -1,0 C 99 % 15 lf 1010,6 hPa 0,0 l/m 0 min 0,0 UV-I 0 W/m 5,1 km/h (1 Bft)
08.02.2013 02:58 0,3 C -1,0 C 99 % 15 lf 1010,6 hPa 0,0 l/m 0 min 0,0 UV-I 0 W/m 7,7 km/h (2 Bft)
08.02.2013 03:00 0,3 C -1,0 C 99 % 15 lf 1010,6 hPa 0,0 l/m 0 min 0,0 UV-I 0 W/m 0,0 km/h (0 Bft)
08.02.2013 03:02 0,3 C -1,0 C 99 % 15 lf 1010,6 hPa 0,0 l/m 0 min 0,0 UV-I 0 W/m 0,0 km/h (0 Bft)
08.02.2013 03:05 0,3 C -1,0 C 99 % 15 lf 1010,6 hPa 0,0 l/m 0 min 0,0 UV-I 0 W/m 0,0 km/h (0 Bft)
08.02.2013 03:08 0,3 C -1,0 C 99 % 15 lf 1010,6 hPa 0,0 l/m 0 min 0,0 UV-I 0 W/m 0,0 km/h (0 Bft)
08.02.2013 03:10 0,2 C -1,0 C 99 % 15 lf 1010,6 hPa 0,0 l/m 0 min 0,0 UV-I 0 W/m 5,1 km/h (1 Bft)
08.02.2013 03:12 0,3 C -1,0 C 99 % 15 lf 1010,6 hPa 0,0 l/m 0 min 0,0 UV-I 0 W/m 2,6 km/h (1 Bft)
08.02.2013 03:14 0,2 C -1,0 C 99 % 15 lf 1010,6 hPa 0,0 l/m 0 min 0,0 UV-I 0 W/m 7,7 km/h (2 Bft)
08.02.2013 03:16 0,2 C -1,0 C 99 % 15 lf 1010,6 hPa 0,0 l/m 0 min 0,0 UV-I 0 W/m 7,7 km/h (2 Bft)
08.02.2013 03:18 0,2 C -1,0 C 99 % 15 lf 1010,6 hPa 0,0 l/m 0 min 0,0 UV-I 0 W/m 2,6 km/h (1 Bft)
08.02.2013 03:20 0,2 C -1,0 C 99 % 15 lf 1010,6 hPa 0,0 l/m 0 min 0,0 UV-I 0 W/m 5,1 km/h (1 Bft)
08.02.2013 03:22 0,2 C -1,0 C 99 % 15 lf 1010,5 hPa 0,0 l/m 0 min 0,0 UV-I 0 W/m 7,7 km/h (2 Bft)
08.02.2013 03:24 0,2 C -1,0 C 99 % 15 lf 1010,5 hPa 0,0 l/m 0 min 0,0 UV-I 0 W/m 0,0 km/h (0 Bft)
08.02.2013 03:26 0,2 C -1,0 C 99 % 15 lf 1010,5 hPa 0,0 l/m 0 min 0,0 UV-I 0 W/m 5,1 km/h (1 Bft)
08.02.2013 03:28 0,2 C -1,0 C 99 % 15 lf 1010,5 hPa 0,0 l/m 0 min 0,0 UV-I 0 W/m 2,6 km/h (1 Bft)
08.02.2013 03:30 0,3 C -1,0 C 99 % 15 lf 1010,5 hPa 0,0 l/m 0 min 0,0 UV-I 0 W/m 2,6 km/h (1 Bft)
08.02.2013 03:32 0,3 C -1,0 C 99 % 15 lf 1010,5 hPa 0,0 l/m 0 min 0,0 UV-I 0 W/m 10,3 km/h (2 Bft)
08.02.2013 03:34 0,3 C -1,0 C 99 % 15 lf 1010,5 hPa 0,0 l/m 0 min 0,0 UV-I 0 W/m 10,3 km/h (2 Bft)
08.02.2013 03:36 0,3 C -1,0 C 99 % 15 lf 1010,4 hPa 0,0 l/m 0 min 0,0 UV-I 0 W/m 7,7 km/h (2 Bft)
08.02.2013 03:38 0,3 C -1,0 C 99 % 15 lf 1010,5 hPa 0,0 l/m 0 min 0,0 UV-I 0 W/m 12,9 km/h (3 Bft)
08.02.2013 03:40 0,3 C -1,0 C 99 % 15 lf 1010,5 hPa 0,0 l/m 0 min 0,0 UV-I 0 W/m 5,1 km/h (1 Bft)
08.02.2013 03:42 0,3 C -1,0 C 99 % 15 lf 1010,4 hPa 0,0 l/m 0 min 0,0 UV-I 0 W/m 5,1 km/h (1 Bft)
08.02.2013 03:44 0,3 C -1,0 C 99 % 15 lf 1010,4 hPa 0,0 l/m 0 min 0,0 UV-I 0 W/m 5,1 km/h (1 Bft)
08.02.2013 03:46 0,3 C -1,0 C 99 % 15 lf 1010,5 hPa 0,0 l/m 0 min 0,0 UV-I 0 W/m 2,6 km/h (1 Bft)
08.02.2013 03:48 0,3 C -1,0 C 99 % 15 lf 1010,4 hPa 0,0 l/m 0 min 0,0 UV-I 0 W/m 0,0 km/h (0 Bft)
08.02.2013 03:50 0,3 C -1,0 C 99 % 15 lf 1010,5 hPa 0,0 l/m 0 min 0,0 UV-I 0 W/m 5,1 km/h (1 Bft)
08.02.2013 03:52 0,3 C -1,0 C 99 % 15 lf 1010,4 hPa 0,0 l/m 0 min 0,0 UV-I 0 W/m 2,6 km/h (1 Bft)
08.02.2013 03:54 0,3 C -1,0 C 99 % 15 lf 1010,4 hPa 0,0 l/m 0 min 0,0 UV-I 0 W/m 2,6 km/h (1 Bft)
08.02.2013 03:56 0,3 C -1,0 C 99 % 15 lf 1010,4 hPa 0,0 l/m 0 min 0,0 UV-I 0 W/m 2,6 km/h (1 Bft)
08.02.2013 03:58 0,3 C -1,0 C 99 % 15 lf 1010,4 hPa 0,0 l/m 0 min 0,0 UV-I 0 W/m 5,1 km/h (1 Bft)
08.02.2013 04:00 0,3 C -1,0 C 99 % 15 lf 1010,4 hPa 0,0 l/m 0 min 0,0 UV-I 0 W/m 7,7 km/h (2 Bft)
08.02.2013 04:02 0,3 C -1,0 C 99 % 15 lf 1010,4 hPa 0,0 l/m 0 min 0,0 UV-I 0 W/m 5,1 km/h (1 Bft)
08.02.2013 04:04 0,3 C -1,0 C 99 % 15 lf 1010,4 hPa 0,0 l/m 0 min 0,0 UV-I 0 W/m 5,1 km/h (1 Bft)
08.02.2013 04:06 0,3 C -1,0 C 99 % 15 lf 1010,4 hPa 0,0 l/m 0 min 0,0 UV-I 0 W/m 12,9 km/h (3 Bft)
08.02.2013 04:08 0,3 C -1,0 C 99 % 15 lf 1010,5 hPa 0,0 l/m 0 min 0,0 UV-I 0 W/m 7,7 km/h (2 Bft)
08.02.2013 04:10 0,3 C -1,0 C 99 % 15 lf 1010,6 hPa 0,0 l/m 0 min 0,0 UV-I 0 W/m 10,3 km/h (2 Bft)
08.02.2013 04:12 0,3 C -1,0 C 99 % 15 lf 1010,6 hPa 0,0 l/m 0 min 0,0 UV-I 0 W/m 2,6 km/h (1 Bft)
08.02.2013 04:14 0,3 C -1,0 C 99 % 15 lf 1010,4 hPa 0,0 l/m 0 min 0,0 UV-I 0 W/m 5,1 km/h (1 Bft)
08.02.2013 04:16 0,3 C -1,0 C 99 % 15 lf 1010,5 hPa 0,0 l/m 0 min 0,0 UV-I 0 W/m 0,0 km/h (0 Bft)
08.02.2013 04:18 0,3 C -1,0 C 99 % 15 lf 1010,5 hPa 0,0 l/m 0 min 0,0 UV-I 0 W/m 0,0 km/h (0 Bft)
08.02.2013 04:20 0,3 C -1,0 C 99 % 15 lf 1010,6 hPa 0,0 l/m 0 min 0,0 UV-I 0 W/m 5,1 km/h (1 Bft)
08.02.2013 04:22 0,3 C -1,0 C 99 % 15 lf 1010,6 hPa 0,0 l/m 0 min 0,0 UV-I 0 W/m 5,1 km/h (1 Bft)
08.02.2013 04:24 0,3 C -1,0 C 99 % 15 lf 1010,6 hPa 0,0 l/m 0 min 0,0 UV-I 0 W/m 0,0 km/h (0 Bft)
08.02.2013 04:26 0,3 C -1,0 C 99 % 15 lf 1010,6 hPa 0,0 l/m 0 min 0,0 UV-I 0 W/m 0,0 km/h (0 Bft)
08.02.2013 04:28 0,3 C -1,0 C 99 % 15 lf 1010,6 hPa 0,0 l/m 0 min 0,0 UV-I 0 W/m 2,6 km/h (1 Bft)
08.02.2013 04:30 0,3 C -1,0 C 99 % 15 lf 1010,6 hPa 0,0 l/m 0 min 0,0 UV-I 0 W/m 5,1 km/h (1 Bft)
08.02.2013 04:32 0,3 C -1,0 C 99 % 15 lf 1010,6 hPa 0,0 l/m 0 min 0,0 UV-I 0 W/m 0,0 km/h (0 Bft)
08.02.2013 04:34 0,3 C -1,0 C 99 % 15 lf 1010,6 hPa 0,0 l/m 0 min 0,0 UV-I 0 W/m 0,0 km/h (0 Bft)
08.02.2013 04:36 0,3 C -1,0 C 99 % 15 lf 1010,6 hPa 0,0 l/m 0 min 0,0 UV-I 0 W/m 0,0 km/h (0 Bft)
08.02.2013 04:38 0,3 C -1,0 C 99 % 15 lf 1010,6 hPa 0,0 l/m 0 min 0,0 UV-I 0 W/m 0,0 km/h (0 Bft)
08.02.2013 04:40 0,3 C -1,0 C 99 % 15 lf 1010,7 hPa 0,0 l/m 0 min 0,0 UV-I 0 W/m 0,0 km/h (0 Bft)
08.02.2013 04:42 0,3 C -1,0 C 99 % 15 lf 1010,7 hPa 0,0 l/m 0 min 0,0 UV-I 0 W/m 2,6 km/h (1 Bft)
08.02.2013 04:44 0,3 C -1,0 C 99 % 15 lf 1010,7 hPa 0,0 l/m 0 min 0,0 UV-I 0 W/m 5,1 km/h (1 Bft)
08.02.2013 04:46 0,3 C -1,0 C 99 % 15 lf 1010,7 hPa 0,0 l/m 0 min 0,0 UV-I 0 W/m 0,0 km/h (0 Bft)
08.02.2013 04:48 0,3 C -1,0 C 99 % 15 lf 1010,7 hPa 0,0 l/m 0 min 0,0 UV-I 0 W/m 0,0 km/h (0 Bft)
08.02.2013 04:50 0,3 C -1,0 C 99 % 15 lf 1010,7 hPa 0,0 l/m 0 min 0,0 UV-I 0 W/m 0,0 km/h (0 Bft)
08.02.2013 04:52 0,3 C -1,0 C 99 % 15 lf 1010,8 hPa 0,0 l/m 0 min 0,0 UV-I 0 W/m 2,6 km/h (1 Bft)
08.02.2013 04:54 0,3 C -1,0 C 99 % 15 lf 1010,8 hPa 0,0 l/m 0 min 0,0 UV-I 0 W/m 0,0 km/h (0 Bft)
08.02.2013 04:56 0,3 C -1,0 C 99 % 15 lf 1010,8 hPa 0,0 l/m 0 min 0,0 UV-I 0 W/m 0,0 km/h (0 Bft)
08.02.2013 04:58 0,3 C -1,0 C 99 % 15 lf 1010,8 hPa 0,0 l/m 0 min 0,0 UV-I 0 W/m 0,0 km/h (0 Bft)
08.02.2013 05:00 0,3 C -1,0 C 99 % 15 lf 1010,8 hPa 0,0 l/m 0 min 0,0 UV-I 0 W/m 0,0 km/h (0 Bft)
08.02.2013 05:02 0,3 C -1,0 C 99 % 15 lf 1010,8 hPa 0,0 l/m 0 min 0,0 UV-I 0 W/m 0,0 km/h (0 Bft)
08.02.2013 05:04 0,3 C -1,0 C 99 % 15 lf 1010,8 hPa 0,0 l/m 0 min 0,0 UV-I 0 W/m 0,0 km/h (0 Bft)
08.02.2013 05:06 0,3 C -1,0 C 99 % 15 lf 1010,9 hPa 0,0 l/m 0 min 0,0 UV-I 0 W/m 0,0 km/h (0 Bft)
08.02.2013 05:08 0,3 C -1,0 C 99 % 15 lf 1010,9 hPa 0,0 l/m 0 min 0,0 UV-I 0 W/m 2,6 km/h (1 Bft)
08.02.2013 05:10 0,3 C -1,0 C 99 % 14 lf 1010,9 hPa 0,0 l/m 0 min 0,0 UV-I 0 W/m 0,0 km/h (0 Bft)
08.02.2013 05:12 0,3 C -1,0 C 99 % 14 lf 1011,0 hPa 0,0 l/m 0 min 0,0 UV-I 0 W/m 0,0 km/h (0 Bft)
08.02.2013 05:14 0,3 C -1,0 C 99 % 14 lf 1011,1 hPa 0,0 l/m 0 min 0,0 UV-I 0 W/m 5,1 km/h (1 Bft)
08.02.2013 05:16 0,3 C -1,0 C 99 % 14 lf 1011,1 hPa 0,0 l/m 0 min 0,0 UV-I 0 W/m 7,7 km/h (2 Bft)
08.02.2013 05:18 0,4 C -1,0 C 99 % 14 lf 1011,1 hPa 0,0 l/m 0 min 0,0 UV-I 0 W/m 7,7 km/h (2 Bft)
08.02.2013 05:20 0,4 C -1,0 C 99 % 15 lf 1010,9 hPa 0,0 l/m 0 min 0,0 UV-I 0 W/m 0,0 km/h (0 Bft)
08.02.2013 05:22 0,4 C -1,0 C 99 % 15 lf 1011,0 hPa 0,0 l/m 0 min 0,0 UV-I 0 W/m 0,0 km/h (0 Bft)
08.02.2013 05:24 0,4 C -1,0 C 99 % 15 lf 1011,0 hPa 0,0 l/m 0 min 0,0 UV-I 0 W/m 0,0 km/h (0 Bft)
08.02.2013 05:26 0,4 C -1,0 C 99 % 15 lf 1011,0 hPa 0,0 l/m 0 min 0,0 UV-I 0 W/m 0,0 km/h (0 Bft)
08.02.2013 05:28 0,4 C -1,0 C 99 % 15 lf 1011,0 hPa 0,0 l/m 0 min 0,0 UV-I 0 W/m 0,0 km/h (0 Bft)
08.02.2013 05:30 0,3 C -1,0 C 99 % 15 lf 1011,0 hPa 0,0 l/m 0 min 0,0 UV-I 0 W/m 0,0 km/h (0 Bft)
08.02.2013 05:32 0,4 C -1,0 C 99 % 15 lf 1011,1 hPa 0,0 l/m 0 min 0,0 UV-I 0 W/m 2,6 km/h (1 Bft)
08.02.2013 05:34 0,4 C -1,0 C 99 % 15 lf 1011,1 hPa 0,2 l/m 0 min 0,0 UV-I 0 W/m 0,0 km/h (0 Bft)
08.02.2013 05:36 0,3 C -1,0 C 99 % 15 lf 1011,1 hPa 0,0 l/m 0 min 0,0 UV-I 0 W/m 0,0 km/h (0 Bft)
08.02.2013 05:38 0,3 C -1,0 C 99 % 15 lf 1011,0 hPa 0,0 l/m 0 min 0,0 UV-I 0 W/m 0,0 km/h (0 Bft)
08.02.2013 05:40 0,3 C -1,0 C 99 % 15 lf 1011,0 hPa 0,0 l/m 0 min 0,0 UV-I 0 W/m 0,0 km/h (0 Bft)
08.02.2013 05:42 0,4 C -1,0 C 99 % 15 lf 1011,1 hPa 0,0 l/m 0 min 0,0 UV-I 0 W/m 0,0 km/h (0 Bft)
08.02.2013 05:44 0,3 C -1,0 C 99 % 15 lf 1011,1 hPa 0,0 l/m 0 min 0,0 UV-I 0 W/m 0,0 km/h (0 Bft)
08.02.2013 05:46 0,3 C -1,0 C 99 % 15 lf 1011,1 hPa 0,0 l/m 0 min 0,0 UV-I 0 W/m 0,0 km/h (0 Bft)
08.02.2013 05:48 0,3 C -1,0 C 99 % 15 lf 1011,1 hPa 0,0 l/m 0 min 0,0 UV-I 0 W/m 0,0 km/h (0 Bft)
08.02.2013 05:50 0,3 C -1,0 C 99 % 15 lf 1011,2 hPa 0,0 l/m 0 min 0,0 UV-I 0 W/m 0,0 km/h (0 Bft)
08.02.2013 05:52 0,3 C -1,0 C 99 % 15 lf 1011,1 hPa 0,0 l/m 0 min 0,0 UV-I 0 W/m 0,0 km/h (0 Bft)
08.02.2013 05:54 0,3 C -1,0 C 99 % 15 lf 1011,2 hPa 0,0 l/m 0 min 0,0 UV-I 0 W/m 0,0 km/h (0 Bft)
08.02.2013 05:56 0,3 C -1,0 C 99 % 15 lf 1011,2 hPa 0,0 l/m 0 min 0,0 UV-I 0 W/m 0,0 km/h (0 Bft)
08.02.2013 05:58 0,3 C -1,0 C 99 % 15 lf 1011,3 hPa 0,0 l/m 0 min 0,0 UV-I 0 W/m 0,0 km/h (0 Bft)
08.02.2013 06:00 0,3 C -1,0 C 99 % 15 lf 1011,3 hPa 0,0 l/m 0 min 0,0 UV-I 0 W/m 0,0 km/h (0 Bft)
08.02.2013 06:02 0,3 C -1,0 C 99 % 15 lf 1011,3 hPa 0,0 l/m 0 min 0,0 UV-I 0 W/m 0,0 km/h (0 Bft)
08.02.2013 06:06 0,3 C -1,0 C 99 % 15 lf 1011,3 hPa 0,0 l/m 0 min 0,0 UV-I 0 W/m 5,1 km/h (1 Bft)
08.02.2013 06:08 0,3 C -1,0 C 99 % 15 lf 1011,3 hPa 0,0 l/m 0 min 0,0 UV-I 0 W/m 5,1 km/h (1 Bft)
08.02.2013 06:10 0,3 C -1,0 C 99 % 15 lf 1011,3 hPa 0,0 l/m 0 min 0,0 UV-I 0 W/m 7,7 km/h (2 Bft)
08.02.2013 06:12 0,3 C -1,0 C 99 % 15 lf 1011,3 hPa 0,0 l/m 0 min 0,0 UV-I 0 W/m 5,1 km/h (1 Bft)
08.02.2013 06:14 0,3 C -1,0 C 99 % 15 lf 1011,3 hPa 0,0 l/m 0 min 0,0 UV-I 0 W/m 2,6 km/h (1 Bft)
08.02.2013 06:16 0,3 C -1,0 C 99 % 15 lf 1011,3 hPa 0,0 l/m 0 min 0,0 UV-I 0 W/m 7,7 km/h (2 Bft)
08.02.2013 06:18 0,4 C -1,0 C 99 % 15 lf 1011,3 hPa 0,0 l/m 0 min 0,0 UV-I 0 W/m 0,0 km/h (0 Bft)
08.02.2013 06:20 0,3 C -1,0 C 99 % 15 lf 1011,4 hPa 0,0 l/m 0 min 0,0 UV-I 0 W/m 0,0 km/h (0 Bft)
08.02.2013 06:22 0,4 C -1,0 C 99 % 15 lf 1011,3 hPa 0,0 l/m 0 min 0,0 UV-I 0 W/m 0,0 km/h (0 Bft)
08.02.2013 06:24 0,4 C -1,0 C 99 % 15 lf 1011,4 hPa 0,0 l/m 0 min 0,0 UV-I 0 W/m 0,0 km/h (0 Bft)
08.02.2013 06:26 0,4 C -1,0 C 99 % 15 lf 1011,3 hPa 0,0 l/m 0 min 0,0 UV-I 0 W/m 0,0 km/h (0 Bft)
08.02.2013 06:28 0,4 C -1,0 C 99 % 15 lf 1011,4 hPa 0,0 l/m 0 min 0,0 UV-I 0 W/m 0,0 km/h (0 Bft)
08.02.2013 06:30 0,4 C -1,0 C 99 % 15 lf 1011,4 hPa 0,0 l/m 0 min 0,0 UV-I 0 W/m 0,0 km/h (0 Bft)
08.02.2013 06:32 0,4 C -1,0 C 99 % 15 lf 1011,4 hPa 0,0 l/m 0 min 0,0 UV-I 0 W/m 0,0 km/h (0 Bft)
08.02.2013 06:34 0,4 C -1,0 C 99 % 15 lf 1011,4 hPa 0,0 l/m 0 min 0,0 UV-I 0 W/m 0,0 km/h (0 Bft)
08.02.2013 06:36 0,4 C -1,0 C 99 % 15 lf 1011,4 hPa 0,0 l/m 0 min 0,0 UV-I 0 W/m 0,0 km/h (0 Bft)
08.02.2013 06:38 0,4 C -0,4 C 99 % 15 lf 1011,4 hPa 0,0 l/m 0 min 0,0 UV-I 0 W/m 0,0 km/h (0 Bft)
08.02.2013 06:40 0,4 C -0,4 C 99 % 15 lf 1011,5 hPa 0,2 l/m 0 min 0,0 UV-I 0 W/m 0,0 km/h (0 Bft)
08.02.2013 06:42 0,4 C -1,0 C 99 % 15 lf 1011,4 hPa 0,2 l/m 0 min 0,0 UV-I 0 W/m 0,0 km/h (0 Bft)
08.02.2013 06:44 0,4 C -1,0 C 99 % 15 lf 1011,5 hPa 0,2 l/m 0 min 0,0 UV-I 0 W/m 0,0 km/h (0 Bft)
08.02.2013 06:46 0,4 C -1,0 C 99 % 15 lf 1011,5 hPa 0,2 l/m 0 min 0,0 UV-I 0 W/m 0,0 km/h (0 Bft)
08.02.2013 06:48 0,4 C -1,0 C 99 % 15 lf 1011,5 hPa 0,2 l/m 0 min 0,0 UV-I 0 W/m 0,0 km/h (0 Bft)
08.02.2013 06:50 0,4 C -0,4 C 99 % 15 lf 1011,5 hPa 0,2 l/m 0 min 0,0 UV-I 0 W/m 5,1 km/h (1 Bft)
08.02.2013 06:52 0,4 C -1,0 C 99 % 14 lf 1011,5 hPa 0,2 l/m 0 min 0,0 UV-I 0 W/m 0,0 km/h (0 Bft)
08.02.2013 06:54 0,4 C -1,0 C 99 % 14 lf 1011,6 hPa 0,0 l/m 0 min 0,0 UV-I 0 W/m 0,0 km/h (0 Bft)
08.02.2013 06:56 0,4 C -1,0 C 99 % 14 lf 1011,6 hPa 0,2 l/m 0 min 0,0 UV-I 0 W/m 0,0 km/h (0 Bft)
08.02.2013 06:58 0,4 C -0,4 C 99 % 14 lf 1011,6 hPa 0,2 l/m 0 min 0,0 UV-I 0 W/m 0,0 km/h (0 Bft)
08.02.2013 07:00 0,4 C -1,0 C 99 % 14 lf 1011,5 hPa 0,0 l/m 0 min 0,0 UV-I 0 W/m 0,0 km/h (0 Bft)
08.02.2013 07:02 0,4 C -1,0 C 99 % 14 lf 1011,6 hPa 0,2 l/m 0 min 0,0 UV-I 0 W/m 0,0 km/h (0 Bft)
08.02.2013 07:04 0,4 C -1,0 C 99 % 14 lf 1011,6 hPa 0,0 l/m 0 min 0,0 UV-I 0 W/m 0,0 km/h (0 Bft)
08.02.2013 07:06 0,4 C -1,0 C 99 % 14 lf 1011,6 hPa 0,2 l/m 0 min 0,0 UV-I 0 W/m 0,0 km/h (0 Bft)
08.02.2013 07:08 0,4 C -1,0 C 99 % 14 lf 1011,8 hPa 0,0 l/m 0 min 0,0 UV-I 0 W/m 0,0 km/h (0 Bft)
08.02.2013 07:10 0,4 C -1,0 C 99 % 14 lf 1011,8 hPa 0,0 l/m 0 min 0,0 UV-I 0 W/m 0,0 km/h (0 Bft)
08.02.2013 07:12 0,4 C -1,0 C 99 % 14 lf 1011,8 hPa 0,0 l/m 0 min 0,0 UV-I 0 W/m 0,0 km/h (0 Bft)
08.02.2013 07:14 0,4 C -1,0 C 99 % 14 lf 1011,8 hPa 0,0 l/m 0 min 0,0 UV-I 0 W/m 0,0 km/h (0 Bft)
08.02.2013 07:16 0,4 C -1,0 C 99 % 14 lf 1011,9 hPa 0,0 l/m 0 min 0,0 UV-I 0 W/m 0,0 km/h (0 Bft)
08.02.2013 07:18 0,4 C -1,0 C 99 % 14 lf 1011,9 hPa 0,0 l/m 0 min 0,0 UV-I 0 W/m 0,0 km/h (0 Bft)
08.02.2013 07:20 0,4 C -1,0 C 99 % 14 lf 1011,9 hPa 0,0 l/m 0 min 0,0 UV-I 0 W/m 0,0 km/h (0 Bft)
08.02.2013 07:22 0,4 C -1,0 C 99 % 14 lf 1012,0 hPa 0,0 l/m 0 min 0,0 UV-I 0 W/m 0,0 km/h (0 Bft)
08.02.2013 07:24 0,4 C -1,0 C 99 % 14 lf 1011,9 hPa 0,0 l/m 0 min 0,0 UV-I 0 W/m 0,0 km/h (0 Bft)
08.02.2013 07:26 0,4 C -0,4 C 99 % 14 lf 1012,0 hPa 0,0 l/m 0 min 0,0 UV-I 0 W/m 0,0 km/h (0 Bft)
08.02.2013 07:28 0,4 C -0,4 C 99 % 14 lf 1012,0 hPa 0,0 l/m 0 min 0,0 UV-I 0 W/m 0,0 km/h (0 Bft)
08.02.2013 07:30 0,4 C -0,4 C 99 % 14 lf 1012,0 hPa 0,0 l/m 0 min 0,0 UV-I 0 W/m 7,7 km/h (2 Bft)
08.02.2013 07:32 0,4 C -0,4 C 99 % 14 lf 1012,1 hPa 0,0 l/m 0 min 0,0 UV-I 0 W/m 7,7 km/h (2 Bft)
08.02.2013 07:34 0,4 C -1,0 C 99 % 14 lf 1012,1 hPa 0,0 l/m 0 min 0,0 UV-I 0 W/m 0,0 km/h (0 Bft)
08.02.2013 07:36 0,4 C -1,0 C 99 % 14 lf 1012,1 hPa 0,0 l/m 0 min 0,0 UV-I 0 W/m 0,0 km/h (0 Bft)
08.02.2013 07:38 0,4 C -1,0 C 99 % 14 lf 1012,1 hPa 0,0 l/m 0 min 0,0 UV-I 0 W/m 0,0 km/h (0 Bft)
08.02.2013 07:40 0,4 C -1,0 C 99 % 14 lf 1012,1 hPa 0,0 l/m 0 min 0,0 UV-I 0 W/m 2,6 km/h (1 Bft)
08.02.2013 07:42 0,4 C -1,0 C 99 % 14 lf 1012,1 hPa 0,0 l/m 0 min 0,0 UV-I 0 W/m 0,0 km/h (0 Bft)
08.02.2013 07:44 0,4 C -1,0 C 99 % 14 lf 1012,2 hPa 0,0 l/m 0 min 0,0 UV-I 0 W/m 0,0 km/h (0 Bft)
08.02.2013 07:46 0,4 C -1,0 C 99 % 14 lf 1012,1 hPa 0,0 l/m 0 min 0,0 UV-I 0 W/m 5,1 km/h (1 Bft)
08.02.2013 07:48 0,4 C -1,0 C 99 % 14 lf 1012,2 hPa 0,0 l/m 0 min 0,0 UV-I 0 W/m 2,6 km/h (1 Bft)
08.02.2013 07:50 0,4 C -1,0 C 99 % 14 lf 1012,3 hPa 0,0 l/m 0 min 0,0 UV-I 0 W/m 2,6 km/h (1 Bft)
08.02.2013 07:52 0,4 C -1,0 C 99 % 14 lf 1012,3 hPa 0,0 l/m 0 min 0,0 UV-I 0 W/m 5,1 km/h (1 Bft)
08.02.2013 07:54 0,4 C -1,0 C 99 % 14 lf 1012,3 hPa 0,0 l/m 0 min 0,0 UV-I 0 W/m 0,0 km/h (0 Bft)
08.02.2013 07:56 0,4 C -0,4 C 99 % 14 lf 1012,3 hPa 0,0 l/m 0 min 0,0 UV-I 0 W/m 0,0 km/h (0 Bft)
08.02.2013 07:58 0,4 C -1,0 C 99 % 14 lf 1012,3 hPa 0,0 l/m 0 min 0,0 UV-I 0 W/m 0,0 km/h (0 Bft)
08.02.2013 08:00 0,4 C -1,0 C 99 % 14 lf 1012,4 hPa 0,0 l/m 0 min 0,0 UV-I 0 W/m 0,0 km/h (0 Bft)
08.02.2013 08:02 0,4 C -1,0 C 99 % 14 lf 1012,4 hPa 0,0 l/m 0 min 0,0 UV-I 0 W/m 2,6 km/h (1 Bft)
08.02.2013 08:04 0,4 C -1,0 C 99 % 14 lf 1012,5 hPa 0,0 l/m 0 min 0,0 UV-I 0 W/m 0,0 km/h (0 Bft)
08.02.2013 08:06 0,4 C -1,0 C 99 % 14 lf 1012,4 hPa 0,0 l/m 0 min 0,0 UV-I 0 W/m 2,6 km/h (1 Bft)
08.02.2013 08:08 0,4 C -1,0 C 99 % 14 lf 1012,5 hPa 0,0 l/m 0 min 0,0 UV-I 0 W/m 0,0 km/h (0 Bft)
08.02.2013 08:10 0,4 C -0,4 C 99 % 14 lf 1012,5 hPa 0,0 l/m 0 min 0,0 UV-I 0 W/m 0,0 km/h (0 Bft)
08.02.2013 08:12 0,4 C -1,0 C 99 % 13 lf 1012,5 hPa 0,0 l/m 0 min 0,0 UV-I 0 W/m 0,0 km/h (0 Bft)
08.02.2013 08:14 0,4 C -0,4 C 99 % 13 lf 1012,5 hPa 0,0 l/m 0 min 0,0 UV-I 0 W/m 0,0 km/h (0 Bft)
08.02.2013 08:16 0,4 C -0,4 C 99 % 13 lf 1012,5 hPa 0,0 l/m 0 min 0,0 UV-I 0 W/m 0,0 km/h (0 Bft)
08.02.2013 08:18 0,4 C -0,4 C 99 % 13 lf 1012,6 hPa 0,0 l/m 0 min 0,0 UV-I 0 W/m 0,0 km/h (0 Bft)
08.02.2013 08:20 0,4 C -0,4 C 100 % 13 lf 1012,6 hPa 0,0 l/m 0 min 0,0 UV-I 0 W/m 0,0 km/h (0 Bft)
08.02.2013 08:22 0,4 C -0,4 C 99 % 13 lf 1012,6 hPa 0,0 l/m 0 min 0,0 UV-I 0 W/m 5,1 km/h (1 Bft)
08.02.2013 08:24 0,4 C -0,4 C 99 % 13 lf 1012,7 hPa 0,0 l/m 0 min 0,0 UV-I 0 W/m 2,6 km/h (1 Bft)
08.02.2013 08:26 0,4 C -0,4 C 99 % 13 lf 1012,6 hPa 0,0 l/m 0 min 0,0 UV-I 0 W/m 5,1 km/h (1 Bft)
08.02.2013 08:28 0,4 C -0,4 C 99 % 13 lf 1012,7 hPa 0,0 l/m 0 min 0,0 UV-I 0 W/m 0,0 km/h (0 Bft)
08.02.2013 08:30 0,4 C -0,4 C 99 % 13 lf 1012,7 hPa 0,0 l/m 0 min 0,0 UV-I 0 W/m 0,0 km/h (0 Bft)
08.02.2013 08:32 0,4 C -0,4 C 99 % 13 lf 1012,8 hPa 0,0 l/m 0 min 0,0 UV-I 0 W/m 0,0 km/h (0 Bft)
08.02.2013 08:34 0,4 C -0,4 C 99 % 13 lf 1012,8 hPa 0,0 l/m 0 min 0,0 UV-I 0 W/m 2,6 km/h (1 Bft)
08.02.2013 08:36 0,4 C -0,4 C 99 % 13 lf 1012,8 hPa 0,0 l/m 0 min 0,0 UV-I 0 W/m 5,1 km/h (1 Bft)
08.02.2013 08:38 0,4 C -0,4 C 99 % 13 lf 1012,8 hPa 0,0 l/m 0 min 0,0 UV-I 0 W/m 7,7 km/h (2 Bft)
08.02.2013 08:40 0,4 C -0,4 C 99 % 13 lf 1012,8 hPa 0,0 l/m 0 min 0,0 UV-I 0 W/m 5,1 km/h (1 Bft)
08.02.2013 08:42 0,4 C -0,4 C 99 % 13 lf 1012,8 hPa 0,0 l/m 0 min 0,0 UV-I 0 W/m 0,0 km/h (0 Bft)
08.02.2013 08:44 0,4 C -0,4 C 99 % 13 lf 1012,9 hPa 0,0 l/m 0 min 0,0 UV-I 0 W/m 2,6 km/h (1 Bft)
08.02.2013 08:46 0,4 C -0,4 C 99 % 13 lf 1012,9 hPa 0,0 l/m 0 min 0,0 UV-I 0 W/m 7,7 km/h (2 Bft)
08.02.2013 08:48 0,4 C -0,4 C 99 % 13 lf 1012,9 hPa 0,0 l/m 0 min 0,0 UV-I 0 W/m 7,7 km/h (2 Bft)
08.02.2013 08:50 0,4 C -0,4 C 99 % 14 lf 1012,9 hPa 0,0 l/m 0 min 0,0 UV-I 7 W/m 2,6 km/h (1 Bft)
08.02.2013 08:52 0,4 C -0,4 C 100 % 13 lf 1012,9 hPa 0,0 l/m 0 min 0,0 UV-I 9 W/m 7,7 km/h (2 Bft)
08.02.2013 08:54 0,4 C -0,4 C 100 % 14 lf 1013,0 hPa 0,0 l/m 0 min 0,0 UV-I 9 W/m 7,7 km/h (2 Bft)
08.02.2013 08:56 0,4 C -0,4 C 100 % 14 lf 1013,0 hPa 0,0 l/m 0 min 0,0 UV-I 9 W/m 0,0 km/h (0 Bft)
08.02.2013 08:58 0,4 C -0,4 C 100 % 14 lf 1013,0 hPa 0,0 l/m 0 min 0,0 UV-I 11 W/m 12,9 km/h (3 Bft)
08.02.2013 09:00 0,4 C -0,4 C 100 % 14 lf 1013,0 hPa 0,0 l/m 0 min 0,0 UV-I 9 W/m 7,7 km/h (2 Bft)
08.02.2013 09:02 0,4 C -0,4 C 100 % 14 lf 1013,0 hPa 0,0 l/m 0 min 0,0 UV-I 9 W/m 5,1 km/h (1 Bft)
08.02.2013 09:06 0,4 C -0,4 C 100 % 14 lf 1013,1 hPa 0,0 l/m 0 min 0,0 UV-I 11 W/m 7,7 km/h (2 Bft)
08.02.2013 09:08 0,4 C -0,4 C 100 % 14 lf 1013,1 hPa 0,0 l/m 0 min 0,0 UV-I 11 W/m 7,7 km/h (2 Bft)
08.02.2013 09:10 0,4 C -0,4 C 100 % 14 lf 1013,1 hPa 0,0 l/m 0 min 0,0 UV-I 11 W/m 7,7 km/h (2 Bft)
08.02.2013 09:12 0,4 C -0,4 C 100 % 14 lf 1013,1 hPa 0,0 l/m 0 min 0,0 UV-I 12 W/m 7,7 km/h (2 Bft)
08.02.2013 09:14 0,5 C -0,4 C 100 % 14 lf 1013,2 hPa 0,0 l/m 0 min 0,0 UV-I 11 W/m 10,3 km/h (2 Bft)
08.02.2013 09:16 0,5 C -0,4 C 100 % 14 lf 1013,2 hPa 0,0 l/m 0 min 0,0 UV-I 11 W/m 7,7 km/h (2 Bft)
08.02.2013 09:18 0,5 C -0,4 C 100 % 14 lf 1013,2 hPa 0,0 l/m 0 min 0,0 UV-I 12 W/m 10,3 km/h (2 Bft)
08.02.2013 09:20 0,5 C -0,4 C 100 % 14 lf 1013,2 hPa 0,0 l/m 0 min 0,0 UV-I 16 W/m 10,3 km/h (2 Bft)
08.02.2013 09:22 0,5 C -0,4 C 100 % 14 lf 1013,2 hPa 0,0 l/m 0 min 0,0 UV-I 21 W/m 10,3 km/h (2 Bft)
08.02.2013 09:24 0,5 C -0,4 C 100 % 14 lf 1013,3 hPa 0,0 l/m 0 min 0,0 UV-I 21 W/m 12,9 km/h (3 Bft)
08.02.2013 09:26 0,5 C -0,4 C 100 % 14 lf 1013,3 hPa 0,0 l/m 0 min 0,0 UV-I 26 W/m 2,6 km/h (1 Bft)
08.02.2013 09:28 0,5 C -0,4 C 100 % 14 lf 1013,3 hPa 0,0 l/m 0 min 0,0 UV-I 30 W/m 10,3 km/h (2 Bft)
08.02.2013 09:30 0,5 C -0,4 C 100 % 14 lf 1013,3 hPa 0,0 l/m 0 min 0,0 UV-I 26 W/m 15,4 km/h (3 Bft)
08.02.2013 09:32 0,5 C -0,4 C 100 % 14 lf 1013,3 hPa 0,0 l/m 0 min 0,0 UV-I 28 W/m 10,3 km/h (2 Bft)
08.02.2013 09:34 0,5 C -0,4 C 100 % 14 lf 1013,3 hPa 0,0 l/m 0 min 0,0 UV-I 28 W/m 12,9 km/h (3 Bft)
08.02.2013 09:36 0,5 C -0,4 C 100 % 14 lf 1013,2 hPa 0,0 l/m 0 min 0,0 UV-I 32 W/m 7,7 km/h (2 Bft)
08.02.2013 09:38 0,5 C -0,4 C 100 % 14 lf 1013,2 hPa 0,0 l/m 0 min 0,0 UV-I 35 W/m 7,7 km/h (2 Bft)
08.02.2013 09:40 0,5 C -0,4 C 100 % 14 lf 1013,3 hPa 0,0 l/m 0 min 0,0 UV-I 39 W/m 12,9 km/h (3 Bft)
08.02.2013 09:42 0,5 C -0,4 C 100 % 14 lf 1013,3 hPa 0,0 l/m 0 min 0,0 UV-I 39 W/m 10,3 km/h (2 Bft)
08.02.2013 09:44 0,5 C -0,4 C 100 % 14 lf 1013,3 hPa 0,0 l/m 0 min 0,0 UV-I 39 W/m 15,4 km/h (3 Bft)
08.02.2013 09:46 0,5 C -0,4 C 100 % 14 lf 1013,4 hPa 0,0 l/m 0 min 0,0 UV-I 42 W/m 12,9 km/h (3 Bft)
08.02.2013 09:48 0,5 C -0,4 C 100 % 14 lf 1013,3 hPa 0,0 l/m 0 min 0,0 UV-I 44 W/m 12,9 km/h (3 Bft)
08.02.2013 09:50 0,5 C -0,4 C 100 % 14 lf 1013,5 hPa 0,0 l/m 0 min 0,0 UV-I 46 W/m 12,9 km/h (3 Bft)
08.02.2013 09:52 0,6 C -0,4 C 100 % 14 lf 1013,4 hPa 0,0 l/m 0 min 0,0 UV-I 46 W/m 10,3 km/h (2 Bft)
08.02.2013 09:54 0,6 C -0,4 C 100 % 14 lf 1013,5 hPa 0,0 l/m 0 min 0,0 UV-I 46 W/m 5,1 km/h (1 Bft)
08.02.2013 09:56 0,6 C -0,4 C 100 % 14 lf 1013,6 hPa 0,0 l/m 0 min 0,0 UV-I 46 W/m 12,9 km/h (3 Bft)
08.02.2013 09:58 0,6 C -0,4 C 100 % 14 lf 1013,6 hPa 0,0 l/m 0 min 0,0 UV-I 46 W/m 10,3 km/h (2 Bft)
08.02.2013 10:00 0,6 C -0,4 C 100 % 14 lf 1013,6 hPa 0,0 l/m 0 min 0,0 UV-I 44 W/m 5,1 km/h (1 Bft)
08.02.2013 10:02 0,6 C -0,4 C 100 % 14 lf 1013,6 hPa 0,0 l/m 0 min 0,0 UV-I 44 W/m 7,7 km/h (2 Bft)
08.02.2013 10:04 0,6 C -0,4 C 100 % 14 lf 1013,7 hPa 0,0 l/m 0 min 0,0 UV-I 42 W/m 7,7 km/h (2 Bft)
08.02.2013 10:06 0,6 C -0,4 C 100 % 14 lf 1013,6 hPa 0,0 l/m 0 min 0,0 UV-I 42 W/m 10,3 km/h (2 Bft)
08.02.2013 10:08 0,6 C -0,4 C 100 % 14 lf 1013,7 hPa 0,0 l/m 0 min 0,0 UV-I 44 W/m 7,7 km/h (2 Bft)
08.02.2013 10:10 0,6 C -0,4 C 100 % 14 lf 1013,7 hPa 0,0 l/m 0 min 0,0 UV-I 42 W/m 10,3 km/h (2 Bft)
08.02.2013 10:12 0,6 C -0,4 C 100 % 14 lf 1013,6 hPa 0,0 l/m 0 min 0,0 UV-I 42 W/m 10,3 km/h (2 Bft)
08.02.2013 10:14 0,6 C -0,4 C 100 % 14 lf 1013,7 hPa 0,0 l/m 0 min 0,0 UV-I 44 W/m 12,9 km/h (3 Bft)
08.02.2013 10:16 0,6 C -0,4 C 100 % 14 lf 1013,7 hPa 0,0 l/m 0 min 0,0 UV-I 46 W/m 10,3 km/h (2 Bft)
08.02.2013 10:18 0,6 C -0,4 C 100 % 14 lf 1013,7 hPa 0,0 l/m 0 min 0,0 UV-I 46 W/m 7,7 km/h (2 Bft)
08.02.2013 10:20 0,6 C -0,4 C 100 % 14 lf 1013,8 hPa 0,0 l/m 0 min 0,0 UV-I 53 W/m 12,9 km/h (3 Bft)
08.02.2013 10:22 0,6 C -0,4 C 100 % 14 lf 1013,8 hPa 0,0 l/m 0 min 0,0 UV-I 56 W/m 12,9 km/h (3 Bft)
08.02.2013 10:24 0,6 C -0,4 C 100 % 14 lf 1013,8 hPa 0,0 l/m 0 min 0,0 UV-I 60 W/m 5,1 km/h (1 Bft)
08.02.2013 10:26 0,6 C -0,4 C 100 % 14 lf 1013,9 hPa 0,0 l/m 0 min 0,0 UV-I 60 W/m 10,3 km/h (2 Bft)
08.02.2013 10:28 0,6 C -0,4 C 100 % 14 lf 1013,9 hPa 0,0 l/m 0 min 0,0 UV-I 56 W/m 10,3 km/h (2 Bft)
08.02.2013 10:30 0,6 C -0,4 C 100 % 14 lf 1013,9 hPa 0,0 l/m 0 min 0,0 UV-I 53 W/m 5,1 km/h (1 Bft)
08.02.2013 10:32 0,6 C -0,4 C 100 % 14 lf 1013,9 hPa 0,0 l/m 0 min 0,0 UV-I 58 W/m 7,7 km/h (2 Bft)
08.02.2013 10:34 0,6 C -0,4 C 100 % 14 lf 1013,9 hPa 0,0 l/m 0 min 0,0 UV-I 62 W/m 7,7 km/h (2 Bft)
08.02.2013 10:36 0,6 C -0,4 C 100 % 14 lf 1013,9 hPa 0,0 l/m 0 min 0,0 UV-I 69 W/m 7,7 km/h (2 Bft)
08.02.2013 10:38 0,7 C -0,4 C 100 % 13 lf 1014,0 hPa 0,0 l/m 0 min 0,0 UV-I 72 W/m 10,3 km/h (2 Bft)
08.02.2013 10:40 0,7 C -0,4 C 100 % 13 lf 1013,9 hPa 0,0 l/m 0 min 0,0 UV-I 74 W/m 7,7 km/h (2 Bft)
08.02.2013 10:42 0,7 C 0,1 C 100 % 13 lf 1013,9 hPa 0,0 l/m 0 min 0,0 UV-I 76 W/m 10,3 km/h (2 Bft)
08.02.2013 10:44 0,7 C 0,1 C 100 % 13 lf 1014,0 hPa 0,0 l/m 0 min 0,0 UV-I 72 W/m 0,0 km/h (0 Bft)
08.02.2013 10:46 0,7 C 0,1 C 100 % 13 lf 1014,0 hPa 0,0 l/m 0 min 0,0 UV-I 72 W/m 12,9 km/h (3 Bft)
08.02.2013 10:48 0,7 C 0,1 C 100 % 13 lf 1014,0 hPa 0,0 l/m 0 min 0,0 UV-I 70 W/m 10,3 km/h (2 Bft)
08.02.2013 10:50 0,7 C 0,1 C 100 % 13 lf 1014,0 hPa 0,0 l/m 0 min 0,0 UV-I 74 W/m 2,6 km/h (1 Bft)
08.02.2013 10:52 0,7 C 0,1 C 100 % 13 lf 1014,0 hPa 0,0 l/m 0 min 0,0 UV-I 77 W/m 10,3 km/h (2 Bft)
08.02.2013 10:54 0,7 C 0,1 C 100 % 12 lf 1014,0 hPa 0,0 l/m 0 min 0,0 UV-I 81 W/m 5,1 km/h (1 Bft)
08.02.2013 10:56 0,8 C 0,1 C 100 % 12 lf 1014,0 hPa 0,0 l/m 0 min 0,0 UV-I 83 W/m 2,6 km/h (1 Bft)
08.02.2013 10:58 0,8 C 0,1 C 99 % 12 lf 1014,0 hPa 0,0 l/m 0 min 0,0 UV-I 84 W/m 7,7 km/h (2 Bft)
08.02.2013 11:00 0,8 C 0,1 C 99 % 12 lf 1014,1 hPa 0,0 l/m 0 min 0,0 UV-I 91 W/m 7,7 km/h (2 Bft)
08.02.2013 11:02 0,8 C 0,1 C 99 % 12 lf 1014,1 hPa 0,0 l/m 0 min 0,0 UV-I 100 W/m 0,0 km/h (0 Bft)
08.02.2013 11:04 0,8 C 0,1 C 99 % 12 lf 1014,1 hPa 0,0 l/m 0 min 0,0 UV-I 109 W/m 0,0 km/h (0 Bft)
08.02.2013 11:06 0,8 C 0,1 C 99 % 11 lf 1014,1 hPa 0,0 l/m 0 min 0,0 UV-I 118 W/m 7,7 km/h (2 Bft)
08.02.2013 11:08 0,8 C 0,1 C 99 % 11 lf 1014,1 hPa 0,0 l/m 0 min 0,0 UV-I 120 W/m 2,6 km/h (1 Bft)
08.02.2013 11:10 0,8 C 0,1 C 99 % 11 lf 1014,1 hPa 0,0 l/m 0 min 0,0 UV-I 118 W/m 2,6 km/h (1 Bft)
08.02.2013 11:12 0,9 C 0,1 C 99 % 10 lf 1014,1 hPa 0,0 l/m 0 min 0,0 UV-I 116 W/m 12,9 km/h (3 Bft)
08.02.2013 11:14 0,9 C 0,1 C 100 % 10 lf 1014,1 hPa 0,0 l/m 0 min 0,0 UV-I 113 W/m 12,9 km/h (3 Bft)
08.02.2013 11:16 0,9 C 0,1 C 100 % 9 lf 1014,1 hPa 0,0 l/m 0 min 0,0 UV-I 116 W/m 5,1 km/h (1 Bft)
08.02.2013 11:18 0,9 C 0,1 C 100 % 8 lf 1014,2 hPa 0,0 l/m 0 min 0,0 UV-I 114 W/m 10,3 km/h (2 Bft)
08.02.2013 11:20 0,9 C 0,1 C 100 % 7 lf 1014,2 hPa 0,0 l/m 0 min 0,0 UV-I 105 W/m 2,6 km/h (1 Bft)
08.02.2013 11:22 0,9 C 0,1 C 100 % 6 lf 1014,2 hPa 0,0 l/m 0 min 0,0 UV-I 104 W/m 10,3 km/h (2 Bft)
08.02.2013 11:24 0,9 C 0,1 C 100 % 4 lf 1014,2 hPa 0,0 l/m 0 min 0,0 UV-I 109 W/m 10,3 km/h (2 Bft)
08.02.2013 11:26 0,9 C 0,1 C 99 % 4 lf 1014,2 hPa 0,0 l/m 0 min 0,0 UV-I 125 W/m 10,3 km/h (2 Bft)
08.02.2013 11:28 1,0 C 0,1 C 99 % 4 lf 1014,2 hPa 0,0 l/m 0 min 0,0 UV-I 141 W/m 0,0 km/h (0 Bft)
08.02.2013 11:30 1,0 C 0,1 C 99 % 3 lf 1014,2 hPa 0,0 l/m 0 min 0,0 UV-I 162 W/m 7,7 km/h (2 Bft)
08.02.2013 11:32 1,0 C 0,1 C 99 % 3 lf 1014,2 hPa 0,0 l/m 0 min 0,0 UV-I 174 W/m 7,7 km/h (2 Bft)
08.02.2013 11:34 1,0 C 0,1 C 99 % 3 lf 1014,2 hPa 0,0 l/m 0 min 0,0 UV-I 178 W/m 7,7 km/h (2 Bft)
08.02.2013 11:36 1,1 C 0,1 C 99 % 3 lf 1014,2 hPa 0,0 l/m 0 min 0,0 UV-I 174 W/m 7,7 km/h (2 Bft)
08.02.2013 11:38 1,1 C 0,1 C 99 % 2 lf 1014,2 hPa 0,0 l/m 0 min 0,0 UV-I 178 W/m 7,7 km/h (2 Bft)
08.02.2013 11:40 1,1 C 0,7 C 99 % 2 lf 1014,3 hPa 0,0 l/m 0 min 0,0 UV-I 167 W/m 10,3 km/h (2 Bft)
08.02.2013 11:42 1,1 C 0,7 C 99 % 2 lf 1014,3 hPa 0,0 l/m 0 min 0,0 UV-I 149 W/m 12,9 km/h (3 Bft)
08.02.2013 11:44 1,2 C 0,1 C 99 % 2 lf 1014,3 hPa 0,0 l/m 0 min 0,0 UV-I 132 W/m 10,3 km/h (2 Bft)
08.02.2013 11:46 1,1 C 0,1 C 99 % 2 lf 1014,3 hPa 0,0 l/m 0 min 0,0 UV-I 149 W/m 10,3 km/h (2 Bft)
08.02.2013 11:48 1,2 C 0,7 C 99 % 2 lf 1014,4 hPa 0,0 l/m 0 min 0,0 UV-I 160 W/m 15,4 km/h (3 Bft)
08.02.2013 11:50 1,2 C 0,7 C 99 % 2 lf 1014,4 hPa 0,0 l/m 0 min 0,0 UV-I 160 W/m 10,3 km/h (2 Bft)
08.02.2013 11:52 1,2 C 0,7 C 99 % 2 lf 1014,4 hPa 0,0 l/m 0 min 0,0 UV-I 169 W/m 7,7 km/h (2 Bft)
08.02.2013 11:54 1,2 C 0,7 C 99 % 2 lf 1014,4 hPa 0,0 l/m 0 min 0,0 UV-I 169 W/m 7,7 km/h (2 Bft)
08.02.2013 11:56 1,2 C 0,7 C 99 % 1 lf 1014,4 hPa 0,0 l/m 0 min 0,0 UV-I 158 W/m 7,7 km/h (2 Bft)
08.02.2013 11:58 1,2 C 0,7 C 99 % 1 lf 1014,4 hPa 0,0 l/m 0 min 0,0 UV-I 142 W/m 7,7 km/h (2 Bft)
08.02.2013 12:00 1,3 C 0,7 C 99 % 1 lf 1014,4 hPa 0,0 l/m 0 min 0,0 UV-I 148 W/m 2,6 km/h (1 Bft)
08.02.2013 12:02 1,3 C 0,7 C 99 % 1 lf 1014,5 hPa 0,0 l/m 0 min 0,0 UV-I 162 W/m 7,7 km/h (2 Bft)
08.02.2013 12:05 1,3 C 0,7 C 99 % 1 lf 1014,5 hPa 0,0 l/m 0 min 0,0 UV-I 163 W/m 7,7 km/h (2 Bft)
08.02.2013 12:10 1,3 C 0,7 C 99 % 0 lf 1014,6 hPa 0,0 l/m 0 min 0,0 UV-I 158 W/m 12,9 km/h (3 Bft)
08.02.2013 12:15 1,3 C 0,1 C 98 % 0 lf 1014,5 hPa 0,0 l/m 0 min 0,0 UV-I 155 W/m 15,4 km/h (3 Bft)
08.02.2013 12:18 1,3 C 0,1 C 98 % 0 lf 1014,5 hPa 0,0 l/m 0 min 0,0 UV-I 162 W/m 12,9 km/h (3 Bft)
08.02.2013 12:20 1,3 C 0,7 C 98 % 0 lf 1014,5 hPa 0,0 l/m 0 min 0,0 UV-I 169 W/m 2,6 km/h (1 Bft)
08.02.2013 12:22 1,3 C 0,7 C 98 % 0 lf 1014,5 hPa 0,0 l/m 0 min 0,0 UV-I 155 W/m 15,4 km/h (3 Bft)
08.02.2013 12:24 1,3 C 0,1 C 98 % 0 lf 1014,5 hPa 0,0 l/m 0 min 0,0 UV-I 148 W/m 12,9 km/h (3 Bft)
08.02.2013 12:26 1,3 C 0,1 C 98 % 0 lf 1014,5 hPa 0,0 l/m 0 min 0,0 UV-I 144 W/m 18,0 km/h (3 Bft)
08.02.2013 12:28 1,3 C 0,1 C 98 % 0 lf 1014,6 hPa 0,0 l/m 0 min 0,0 UV-I 158 W/m 15,4 km/h (3 Bft)
08.02.2013 12:30 1,3 C 0,1 C 97 % 0 lf 1014,5 hPa 0,0 l/m 0 min 0,0 UV-I 151 W/m 7,7 km/h (2 Bft)
08.02.2013 12:32 1,3 C 0,1 C 97 % 0 lf 1014,5 hPa 0,0 l/m 0 min 0,0 UV-I 141 W/m 10,3 km/h (2 Bft)
08.02.2013 12:34 1,3 C 0,1 C 97 % 0 lf 1014,6 hPa 0,0 l/m 0 min 0,0 UV-I 125 W/m 12,9 km/h (3 Bft)
08.02.2013 12:36 1,3 C 0,1 C 97 % 0 lf 1014,6 hPa 0,0 l/m 0 min 0,0 UV-I 114 W/m 18,0 km/h (3 Bft)
08.02.2013 12:38 1,3 C 0,1 C 96 % 0 lf 1014,6 hPa 0,0 l/m 0 min 0,0 UV-I 107 W/m 15,4 km/h (3 Bft)
08.02.2013 12:40 1,3 C 0,1 C 96 % 0 lf 1014,6 hPa 0,0 l/m 0 min 0,0 UV-I 100 W/m 15,4 km/h (3 Bft)
08.02.2013 12:42 1,3 C 0,1 C 95 % 0 lf 1014,6 hPa 0,0 l/m 0 min 0,0 UV-I 95 W/m 12,9 km/h (3 Bft)
08.02.2013 12:44 1,3 C 0,1 C 95 % 0 lf 1014,6 hPa 0,0 l/m 0 min 0,0 UV-I 88 W/m 12,9 km/h (3 Bft)
08.02.2013 12:46 1,3 C 0,1 C 95 % 0 lf 1014,5 hPa 0,0 l/m 0 min 0,0 UV-I 86 W/m 10,3 km/h (2 Bft)
08.02.2013 12:48 1,3 C 0,1 C 94 % 0 lf 1014,6 hPa 0,0 l/m 0 min 0,0 UV-I 86 W/m 7,7 km/h (2 Bft)
08.02.2013 12:50 1,3 C 0,1 C 94 % 0 lf 1014,6 hPa 0,0 l/m 0 min 0,0 UV-I 88 W/m 10,3 km/h (2 Bft)
08.02.2013 12:52 1,3 C 0,1 C 94 % 0 lf 1014,6 hPa 0,0 l/m 0 min 0,0 UV-I 88 W/m 10,3 km/h (2 Bft)
08.02.2013 12:54 1,3 C 0,1 C 93 % 0 lf 1014,6 hPa 0,0 l/m 0 min 0,0 UV-I 90 W/m 12,9 km/h (3 Bft)
08.02.2013 12:56 1,3 C 0,1 C 93 % 0 lf 1014,6 hPa 0,0 l/m 0 min 0,0 UV-I 95 W/m 2,6 km/h (1 Bft)
08.02.2013 12:58 1,3 C 0,1 C 93 % 0 lf 1014,6 hPa 0,0 l/m 0 min 0,0 UV-I 90 W/m 7,7 km/h (2 Bft)
08.02.2013 13:00 1,3 C 0,1 C 93 % 0 lf 1014,6 hPa 0,0 l/m 0 min 0,0 UV-I 84 W/m 12,9 km/h (3 Bft)
08.02.2013 13:02 1,3 C 0,1 C 92 % 0 lf 1014,5 hPa 0,0 l/m 0 min 0,0 UV-I 79 W/m 12,9 km/h (3 Bft)
08.02.2013 13:04 1,3 C 0,1 C 92 % 0 lf 1014,6 hPa 0,0 l/m 0 min 0,0 UV-I 76 W/m 15,4 km/h (3 Bft)
08.02.2013 13:06 1,3 C 0,1 C 92 % 0 lf 1014,6 hPa 0,0 l/m 0 min 0,0 UV-I 77 W/m 5,1 km/h (1 Bft)
08.02.2013 13:08 1,3 C 0,1 C 92 % 0 lf 1014,6 hPa 0,0 l/m 0 min 0,0 UV-I 91 W/m 10,3 km/h (2 Bft)
08.02.2013 13:10 1,3 C 0,1 C 92 % 0 lf 1014,5 hPa 0,0 l/m 0 min 0,0 UV-I 98 W/m 7,7 km/h (2 Bft)
08.02.2013 13:12 1,3 C 0,1 C 92 % 0 lf 1014,5 hPa 0,0 l/m 0 min 0,0 UV-I 100 W/m 0,0 km/h (0 Bft)
08.02.2013 13:14 1,3 C 0,1 C 92 % 0 lf 1014,6 hPa 0,0 l/m 0 min 0,0 UV-I 97 W/m 0,0 km/h (0 Bft)
08.02.2013 13:16 1,3 C 0,1 C 92 % 0 lf 1014,5 hPa 0,0 l/m 0 min 0,0 UV-I 90 W/m 2,6 km/h (1 Bft)
08.02.2013 13:18 1,3 C 0,1 C 91 % 0 lf 1014,6 hPa 0,0 l/m 0 min 0,0 UV-I 90 W/m 2,6 km/h (1 Bft)
08.02.2013 13:20 1,3 C 0,7 C 91 % 0 lf 1014,5 hPa 0,0 l/m 0 min 0,0 UV-I 97 W/m 5,1 km/h (1 Bft)
08.02.2013 13:22 1,3 C 0,7 C 91 % 0 lf 1014,5 hPa 0,0 l/m 0 min 0,0 UV-I 98 W/m 2,6 km/h (1 Bft)
08.02.2013 13:24 1,3 C 0,7 C 91 % 0 lf 1014,6 hPa 0,0 l/m 0 min 0,0 UV-I 102 W/m 2,6 km/h (1 Bft)
08.02.2013 13:26 1,3 C 0,7 C 91 % 0 lf 1014,6 hPa 0,0 l/m 0 min 0,0 UV-I 107 W/m 5,1 km/h (1 Bft)
08.02.2013 13:28 1,3 C 0,7 C 91 % 0 lf 1014,6 hPa 0,0 l/m 0 min 0,0 UV-I 107 W/m 2,6 km/h (1 Bft)
08.02.2013 13:30 1,3 C 0,7 C 91 % 0 lf 1014,5 hPa 0,0 l/m 0 min 0,0 UV-I 114 W/m 0,0 km/h (0 Bft)
08.02.2013 13:32 1,3 C 0,7 C 91 % 0 lf 1014,7 hPa 0,0 l/m 0 min 0,0 UV-I 118 W/m 7,7 km/h (2 Bft)
08.02.2013 13:34 1,3 C 0,7 C 90 % 0 lf 1014,6 hPa 0,0 l/m 0 min 0,0 UV-I 120 W/m 10,3 km/h (2 Bft)
08.02.2013 13:36 1,3 C 0,7 C 90 % 0 lf 1014,6 hPa 0,0 l/m 0 min 0,0 UV-I 123 W/m 10,3 km/h (2 Bft)
08.02.2013 13:38 1,3 C 0,7 C 90 % 0 lf 1014,7 hPa 0,0 l/m 0 min 0,0 UV-I 125 W/m 10,3 km/h (2 Bft)
08.02.2013 13:40 1,3 C 0,7 C 89 % 0 lf 1014,8 hPa 0,0 l/m 0 min 0,0 UV-I 123 W/m 15,4 km/h (3 Bft)
08.02.2013 13:42 1,4 C 0,7 C 89 % 0 lf 1014,8 hPa 0,0 l/m 0 min 0,0 UV-I 132 W/m 12,9 km/h (3 Bft)
08.02.2013 13:44 1,3 C 1,2 C 89 % 0 lf 1014,8 hPa 0,0 l/m 0 min 0,0 UV-I 139 W/m 10,3 km/h (2 Bft)
08.02.2013 13:46 1,3 C 1,2 C 89 % 0 lf 1014,8 hPa 0,0 l/m 0 min 0,0 UV-I 123 W/m 10,3 km/h (2 Bft)
08.02.2013 13:48 1,4 C 1,2 C 89 % 0 lf 1014,7 hPa 0,0 l/m 0 min 0,0 UV-I 130 W/m 7,7 km/h (2 Bft)
08.02.2013 13:50 1,4 C 1,2 C 89 % 0 lf 1014,7 hPa 0,0 l/m 0 min 0,0 UV-I 167 W/m 7,7 km/h (2 Bft)
08.02.2013 13:52 1,5 C 1,2 C 89 % 0 lf 1014,7 hPa 0,0 l/m 0 min 0,0 UV-I 192 W/m 10,3 km/h (2 Bft)
08.02.2013 13:54 1,5 C 1,2 C 89 % 0 lf 1014,7 hPa 0,0 l/m 0 min 0,0 UV-I 207 W/m 10,3 km/h (2 Bft)
08.02.2013 13:56 1,6 C 1,2 C 89 % 0 lf 1014,8 hPa 0,0 l/m 0 min 0,0 UV-I 195 W/m 10,3 km/h (2 Bft)
08.02.2013 13:58 1,6 C 1,2 C 89 % 0 lf 1014,7 hPa 0,0 l/m 0 min 0,0 UV-I 179 W/m 5,1 km/h (1 Bft)
08.02.2013 14:00 1,7 C 1,8 C 89 % 0 lf 1014,8 hPa 0,0 l/m 0 min 0,0 UV-I 169 W/m 0,0 km/h (0 Bft)
08.02.2013 14:02 1,7 C 1,2 C 89 % 0 lf 1014,8 hPa 0,0 l/m 0 min 0,0 UV-I 163 W/m 5,1 km/h (1 Bft)
08.02.2013 14:04 1,7 C 1,8 C 89 % 0 lf 1014,8 hPa 0,0 l/m 0 min 0,0 UV-I 169 W/m 0,0 km/h (0 Bft)
08.02.2013 14:06 1,8 C 1,2 C 89 % 0 lf 1014,8 hPa 0,0 l/m 0 min 0,0 UV-I 165 W/m 10,3 km/h (2 Bft)
08.02.2013 14:08 1,8 C 1,2 C 88 % 0 lf 1014,8 hPa 0,0 l/m 0 min 0,0 UV-I 144 W/m 2,6 km/h (1 Bft)
08.02.2013 14:10 1,8 C 1,2 C 88 % 0 lf 1014,8 hPa 0,0 l/m 0 min 0,0 UV-I 156 W/m 7,7 km/h (2 Bft)
08.02.2013 14:12 1,9 C 1,2 C 88 % 0 lf 1014,8 hPa 0,0 l/m 0 min 0,0 UV-I 174 W/m 7,7 km/h (2 Bft)
08.02.2013 14:14 1,9 C 1,8 C 88 % 0 lf 1014,8 hPa 0,0 l/m 2 min 0,0 UV-I 424 W/m 7,7 km/h (2 Bft)
08.02.2013 14:16 2,0 C 1,8 C 88 % 0 lf 1014,8 hPa 0,0 l/m 2 min 0,0 UV-I 255 W/m 5,1 km/h (1 Bft)
08.02.2013 14:18 2,1 C 1,8 C 88 % 0 lf 1014,8 hPa 0,0 l/m 2 min 0,0 UV-I 255 W/m 5,1 km/h (1 Bft)
08.02.2013 14:20 2,2 C 1,8 C 88 % 0 lf 1014,8 hPa 0,0 l/m 2 min 0,0 UV-I 255 W/m 7,7 km/h (2 Bft)
08.02.2013 14:22 2,2 C 1,8 C 88 % 0 lf 1014,8 hPa 0,0 l/m 2 min 0,0 UV-I 383 W/m 15,4 km/h (3 Bft)
08.02.2013 14:24 2,3 C 1,8 C 88 % 0 lf 1014,8 hPa 0,0 l/m 2 min 0,0 UV-I 373 W/m 10,3 km/h (2 Bft)
08.02.2013 14:26 2,3 C 1,8 C 88 % 0 lf 1014,8 hPa 0,0 l/m 2 min 0,0 UV-I 218 W/m 0,0 km/h (0 Bft)
08.02.2013 14:28 2,4 C 1,8 C 88 % 0 lf 1014,8 hPa 0,0 l/m 2 min 0,0 UV-I 295 W/m 7,7 km/h (2 Bft)
08.02.2013 14:30 2,4 C 1,8 C 88 % 0 lf 1014,8 hPa 0,0 l/m 2 min 0,0 UV-I 279 W/m 10,3 km/h (2 Bft)
08.02.2013 14:32 2,4 C 1,8 C 87 % 0 lf 1014,8 hPa 0,0 l/m 2 min 0,0 UV-I 295 W/m 10,3 km/h (2 Bft)
08.02.2013 14:34 2,5 C 1,8 C 87 % 0 lf 1014,8 hPa 0,0 l/m 2 min 0,0 UV-I 346 W/m 5,1 km/h (1 Bft)
08.02.2013 14:36 2,6 C 1,8 C 87 % 0 lf 1014,8 hPa 0,0 l/m 2 min 0,0 UV-I 253 W/m 0,0 km/h (0 Bft)
08.02.2013 14:38 2,6 C 1,8 C 87 % 0 lf 1014,8 hPa 0,0 l/m 2 min 0,0 UV-I 207 W/m 7,7 km/h (2 Bft)
08.02.2013 14:40 2,6 C 1,8 C 86 % 0 lf 1014,8 hPa 0,0 l/m 2 min 0,0 UV-I 202 W/m 10,3 km/h (2 Bft)
08.02.2013 14:42 2,7 C 1,8 C 86 % 0 lf 1014,8 hPa 0,0 l/m 2 min 0,0 UV-I 199 W/m 10,3 km/h (2 Bft)
08.02.2013 14:44 2,7 C 1,8 C 85 % 0 lf 1014,8 hPa 0,0 l/m 2 min 0,0 UV-I 199 W/m 10,3 km/h (2 Bft)
08.02.2013 14:46 2,6 C 1,8 C 85 % 0 lf 1014,8 hPa 0,0 l/m 2 min 0,0 UV-I 188 W/m 7,7 km/h (2 Bft)
08.02.2013 14:48 2,7 C 1,8 C 84 % 0 lf 1014,8 hPa 0,0 l/m 0 min 0,0 UV-I 179 W/m 5,1 km/h (1 Bft)
08.02.2013 14:50 2,7 C 1,8 C 84 % 0 lf 1014,8 hPa 0,0 l/m 0 min 0,0 UV-I 178 W/m 7,7 km/h (2 Bft)
08.02.2013 14:52 2,7 C 1,8 C 84 % 0 lf 1014,8 hPa 0,0 l/m 0 min 0,0 UV-I 169 W/m 15,4 km/h (3 Bft)
08.02.2013 14:54 2,7 C 1,8 C 84 % 0 lf 1014,8 hPa 0,0 l/m 0 min 0,0 UV-I 158 W/m 2,6 km/h (1 Bft)
08.02.2013 14:56 2,7 C 1,8 C 84 % 0 lf 1014,8 hPa 0,0 l/m 0 min 0,0 UV-I 156 W/m 2,6 km/h (1 Bft)
08.02.2013 14:58 2,7 C 1,8 C 84 % 0 lf 1014,8 hPa 0,0 l/m 0 min 0,0 UV-I 142 W/m 12,9 km/h (3 Bft)
08.02.2013 15:00 2,6 C 1,8 C 83 % 0 lf 1014,8 hPa 0,0 l/m 0 min 0,0 UV-I 148 W/m 12,9 km/h (3 Bft)
08.02.2013 15:02 2,6 C 1,8 C 83 % 0 lf 1014,8 hPa 0,0 l/m 0 min 0,0 UV-I 149 W/m 10,3 km/h (2 Bft)
08.02.2013 15:04 2,6 C 1,8 C 83 % 0 lf 1014,9 hPa 0,0 l/m 0 min 0,0 UV-I 139 W/m 10,3 km/h (2 Bft)
08.02.2013 15:06 2,6 C 1,8 C 84 % 0 lf 1014,9 hPa 0,0 l/m 0 min 0,0 UV-I 111 W/m 12,9 km/h (3 Bft)
08.02.2013 15:08 2,6 C 1,8 C 83 % 0 lf 1014,9 hPa 0,0 l/m 0 min 0,0 UV-I 98 W/m 15,4 km/h (3 Bft)
08.02.2013 15:10 2,5 C 1,8 C 83 % 0 lf 1014,8 hPa 0,0 l/m 0 min 0,0 UV-I 90 W/m 2,6 km/h (1 Bft)
08.02.2013 15:12 2,5 C 1,2 C 83 % 0 lf 1014,8 hPa 0,0 l/m 0 min 0,0 UV-I 81 W/m 5,1 km/h (1 Bft)
08.02.2013 15:14 2,5 C 1,2 C 83 % 0 lf 1014,8 hPa 0,0 l/m 0 min 0,0 UV-I 77 W/m 7,7 km/h (2 Bft)
08.02.2013 15:16 2,4 C 1,2 C 83 % 0 lf 1014,9 hPa 0,0 l/m 0 min 0,0 UV-I 76 W/m 10,3 km/h (2 Bft)
08.02.2013 15:18 2,4 C 1,2 C 83 % 0 lf 1014,8 hPa 0,0 l/m 0 min 0,0 UV-I 74 W/m 2,6 km/h (1 Bft)
08.02.2013 15:20 2,4 C 1,2 C 83 % 0 lf 1014,8 hPa 0,0 l/m 0 min 0,0 UV-I 72 W/m 7,7 km/h (2 Bft)
08.02.2013 15:22 2,4 C 1,2 C 83 % 0 lf 1014,9 hPa 0,0 l/m 0 min 0,0 UV-I 74 W/m 10,3 km/h (2 Bft)
08.02.2013 15:24 2,4 C 1,2 C 84 % 0 lf 1014,8 hPa 0,0 l/m 0 min 0,0 UV-I 77 W/m 10,3 km/h (2 Bft)
08.02.2013 15:26 2,3 C 1,2 C 84 % 0 lf 1014,8 hPa 0,0 l/m 0 min 0,0 UV-I 76 W/m 7,7 km/h (2 Bft)
08.02.2013 15:28 2,3 C 1,2 C 84 % 0 lf 1014,8 hPa 0,0 l/m 0 min 0,0 UV-I 74 W/m 10,3 km/h (2 Bft)
08.02.2013 15:30 2,3 C 1,2 C 83 % 0 lf 1014,8 hPa 0,0 l/m 0 min 0,0 UV-I 72 W/m 7,7 km/h (2 Bft)
08.02.2013 15:32 2,3 C 1,2 C 84 % 0 lf 1014,7 hPa 0,0 l/m 0 min 0,0 UV-I 70 W/m 7,7 km/h (2 Bft)
08.02.2013 15:34 2,3 C 1,2 C 84 % 0 lf 1014,8 hPa 0,0 l/m 0 min 0,0 UV-I 90 W/m 10,3 km/h (2 Bft)
08.02.2013 15:36 2,3 C 1,2 C 84 % 0 lf 1014,8 hPa 0,0 l/m 0 min 0,0 UV-I 102 W/m 7,7 km/h (2 Bft)
08.02.2013 15:38 2,3 C 1,8 C 84 % 0 lf 1014,8 hPa 0,0 l/m 0 min 0,0 UV-I 97 W/m 0,0 km/h (0 Bft)
08.02.2013 15:40 2,3 C 1,8 C 85 % 0 lf 1014,8 hPa 0,0 l/m 0 min 0,0 UV-I 81 W/m 10,3 km/h (2 Bft)
08.02.2013 15:42 2,3 C 1,2 C 84 % 0 lf 1014,7 hPa 0,0 l/m 0 min 0,0 UV-I 70 W/m 7,7 km/h (2 Bft)
08.02.2013 15:44 2,3 C 1,2 C 84 % 0 lf 1014,8 hPa 0,0 l/m 0 min 0,0 UV-I 60 W/m 12,9 km/h (3 Bft)
08.02.2013 15:46 2,2 C 1,2 C 83 % 0 lf 1014,7 hPa 0,0 l/m 0 min 0,0 UV-I 56 W/m 18,0 km/h (3 Bft)
08.02.2013 15:48 2,2 C 1,2 C 83 % 0 lf 1014,8 hPa 0,0 l/m 0 min 0,0 UV-I 54 W/m 12,9 km/h (3 Bft)
08.02.2013 15:50 2,2 C 1,2 C 83 % 0 lf 1014,8 hPa 0,0 l/m 0 min 0,0 UV-I 54 W/m 7,7 km/h (2 Bft)
08.02.2013 15:52 2,1 C 1,2 C 83 % 0 lf 1014,7 hPa 0,0 l/m 0 min 0,0 UV-I 62 W/m 10,3 km/h (2 Bft)
08.02.2013 15:54 2,1 C 1,2 C 83 % 0 lf 1014,7 hPa 0,0 l/m 0 min 0,0 UV-I 69 W/m 0,0 km/h (0 Bft)
08.02.2013 15:56 2,1 C 1,2 C 83 % 0 lf 1014,7 hPa 0,0 l/m 0 min 0,0 UV-I 76 W/m 2,6 km/h (1 Bft)
08.02.2013 15:58 2,1 C 1,2 C 83 % 0 lf 1014,7 hPa 0,0 l/m 0 min 0,0 UV-I 88 W/m 12,9 km/h (3 Bft)
08.02.2013 16:00 2,1 C 1,2 C 83 % 0 lf 1014,8 hPa 0,0 l/m 0 min 0,0 UV-I 104 W/m 10,3 km/h (2 Bft)
08.02.2013 16:02 2,1 C 1,2 C 83 % 0 lf 1014,9 hPa 0,0 l/m 0 min 0,0 UV-I 111 W/m 10,3 km/h (2 Bft)
08.02.2013 16:04 2,1 C 1,2 C 82 % 0 lf 1014,8 hPa 0,0 l/m 0 min 0,0 UV-I 74 W/m 12,9 km/h (3 Bft)
08.02.2013 16:06 2,0 C 1,2 C 82 % 0 lf 1014,7 hPa 0,0 l/m 0 min 0,0 UV-I 53 W/m 7,7 km/h (2 Bft)
08.02.2013 16:08 2,0 C 0,7 C 81 % 0 lf 1014,8 hPa 0,0 l/m 0 min 0,0 UV-I 40 W/m 18,0 km/h (3 Bft)
08.02.2013 16:10 1,9 C 0,7 C 81 % 0 lf 1014,7 hPa 0,0 l/m 0 min 0,0 UV-I 35 W/m 10,3 km/h (2 Bft)
08.02.2013 16:12 1,9 C 0,7 C 81 % 0 lf 1014,8 hPa 0,0 l/m 0 min 0,0 UV-I 25 W/m 10,3 km/h (2 Bft)
08.02.2013 16:14 1,8 C 0,7 C 81 % 0 lf 1014,7 hPa 0,0 l/m 0 min 0,0 UV-I 23 W/m 7,7 km/h (2 Bft)
08.02.2013 16:16 1,8 C 0,7 C 81 % 0 lf 1014,7 hPa 0,0 l/m 0 min 0,0 UV-I 26 W/m 5,1 km/h (1 Bft)
08.02.2013 16:18 1,8 C 0,7 C 82 % 0 lf 1014,8 hPa 0,0 l/m 0 min 0,0 UV-I 28 W/m 2,6 km/h (1 Bft)
08.02.2013 16:20 1,7 C 0,7 C 82 % 0 lf 1014,7 hPa 0,0 l/m 0 min 0,0 UV-I 39 W/m 5,1 km/h (1 Bft)
08.02.2013 16:22 1,7 C 0,7 C 82 % 0 lf 1014,8 hPa 0,0 l/m 0 min 0,0 UV-I 39 W/m 5,1 km/h (1 Bft)
08.02.2013 16:24 1,7 C 0,7 C 82 % 0 lf 1014,8 hPa 0,0 l/m 0 min 0,0 UV-I 33 W/m 7,7 km/h (2 Bft)
08.02.2013 16:26 1,7 C 0,7 C 82 % 0 lf 1014,7 hPa 0,0 l/m 0 min 0,0 UV-I 32 W/m 0,0 km/h (0 Bft)
08.02.2013 16:28 1,7 C 0,7 C 82 % 0 lf 1014,8 hPa 0,0 l/m 0 min 0,0 UV-I 26 W/m 0,0 km/h (0 Bft)
08.02.2013 16:30 1,7 C 0,7 C 82 % 0 lf 1014,8 hPa 0,0 l/m 0 min 0,0 UV-I 26 W/m 0,0 km/h (0 Bft)
08.02.2013 16:32 1,7 C 0,7 C 82 % 0 lf 1014,8 hPa 0,0 l/m 0 min 0,0 UV-I 33 W/m 0,0 km/h (0 Bft)
08.02.2013 16:34 1,6 C 0,7 C 82 % 0 lf 1014,7 hPa 0,0 l/m 0 min 0,0 UV-I 39 W/m 0,0 km/h (0 Bft)
08.02.2013 16:36 1,6 C 0,7 C 82 % 0 lf 1014,8 hPa 0,0 l/m 0 min 0,0 UV-I 39 W/m 0,0 km/h (0 Bft)
08.02.2013 16:38 1,6 C 0,7 C 83 % 0 lf 1014,7 hPa 0,0 l/m 0 min 0,0 UV-I 39 W/m 0,0 km/h (0 Bft)
08.02.2013 16:40 1,6 C 0,7 C 83 % 0 lf 1014,7 hPa 0,0 l/m 0 min 0,0 UV-I 35 W/m 0,0 km/h (0 Bft)
08.02.2013 16:42 1,6 C 0,7 C 83 % 0 lf 1014,7 hPa 0,0 l/m 0 min 0,0 UV-I 30 W/m 5,1 km/h (1 Bft)
08.02.2013 16:44 1,6 C 0,7 C 83 % 0 lf 1014,8 hPa 0,0 l/m 0 min 0,0 UV-I 25 W/m 0,0 km/h (0 Bft)
08.02.2013 16:46 1,6 C 0,7 C 83 % 0 lf 1014,8 hPa 0,0 l/m 0 min 0,0 UV-I 21 W/m 0,0 km/h (0 Bft)
08.02.2013 16:48 1,6 C 0,7 C 83 % 0 lf 1014,8 hPa 0,0 l/m 0 min 0,0 UV-I 25 W/m 0,0 km/h (0 Bft)
08.02.2013 16:50 1,6 C 0,7 C 84 % 0 lf 1014,8 hPa 0,0 l/m 0 min 0,0 UV-I 26 W/m 2,6 km/h (1 Bft)
08.02.2013 16:52 1,6 C 0,7 C 83 % 0 lf 1014,8 hPa 0,0 l/m 0 min 0,0 UV-I 26 W/m 0,0 km/h (0 Bft)
08.02.2013 16:54 1,6 C 0,7 C 84 % 0 lf 1014,7 hPa 0,0 l/m 0 min 0,0 UV-I 25 W/m 0,0 km/h (0 Bft)
08.02.2013 16:56 1,6 C 0,1 C 84 % 0 lf 1014,7 hPa 0,0 l/m 0 min 0,0 UV-I 25 W/m 0,0 km/h (0 Bft)
08.02.2013 16:58 1,6 C 0,1 C 84 % 0 lf 1014,7 hPa 0,0 l/m 0 min 0,0 UV-I 23 W/m 0,0 km/h (0 Bft)
08.02.2013 17:00 1,6 C 0,1 C 84 % 0 lf 1014,7 hPa 0,0 l/m 0 min 0,0 UV-I 23 W/m 0,0 km/h (0 Bft)
08.02.2013 17:02 1,5 C 0,1 C 84 % 0 lf 1014,7 hPa 0,0 l/m 0 min 0,0 UV-I 23 W/m 0,0 km/h (0 Bft)
08.02.2013 17:04 1,5 C 0,1 C 84 % 0 lf 1014,8 hPa 0,0 l/m 0 min 0,0 UV-I 23 W/m 0,0 km/h (0 Bft)
08.02.2013 17:06 1,5 C 0,1 C 84 % 0 lf 1014,8 hPa 0,0 l/m 0 min 0,0 UV-I 21 W/m 0,0 km/h (0 Bft)
08.02.2013 17:08 1,5 C 0,1 C 85 % 0 lf 1014,7 hPa 0,0 l/m 0 min 0,0 UV-I 19 W/m 0,0 km/h (0 Bft)
08.02.2013 17:10 1,5 C 0,1 C 85 % 0 lf 1014,8 hPa 0,0 l/m 0 min 0,0 UV-I 18 W/m 0,0 km/h (0 Bft)
08.02.2013 17:12 1,5 C 0,1 C 85 % 0 lf 1014,7 hPa 0,0 l/m 0 min 0,0 UV-I 16 W/m 0,0 km/h (0 Bft)
08.02.2013 17:14 1,5 C 0,1 C 85 % 0 lf 1014,7 hPa 0,0 l/m 0 min 0,0 UV-I 14 W/m 0,0 km/h (0 Bft)
08.02.2013 17:16 1,5 C 0,1 C 85 % 0 lf 1014,7 hPa 0,0 l/m 0 min 0,0 UV-I 12 W/m 0,0 km/h (0 Bft)
08.02.2013 17:18 1,5 C 0,1 C 85 % 0 lf 1014,8 hPa 0,0 l/m 0 min 0,0 UV-I 11 W/m 0,0 km/h (0 Bft)
08.02.2013 17:20 1,5 C 0,1 C 85 % 0 lf 1014,8 hPa 0,0 l/m 0 min 0,0 UV-I 9 W/m 0,0 km/h (0 Bft)
08.02.2013 17:22 1,5 C 0,1 C 85 % 0 lf 1014,8 hPa 0,0 l/m 0 min 0,0 UV-I 7 W/m 0,0 km/h (0 Bft)
08.02.2013 17:24 1,4 C 0,1 C 85 % 0 lf 1014,7 hPa 0,0 l/m 0 min 0,0 UV-I 7 W/m 0,0 km/h (0 Bft)
08.02.2013 17:26 1,4 C 0,1 C 85 % 0 lf 1014,8 hPa 0,0 l/m 0 min 0,0 UV-I 5 W/m 0,0 km/h (0 Bft)
08.02.2013 17:28 1,4 C -0,4 C 85 % 0 lf 1014,8 hPa 0,0 l/m 0 min 0,0 UV-I 5 W/m 0,0 km/h (0 Bft)
08.02.2013 17:30 1,4 C -0,4 C 85 % 0 lf 1014,8 hPa 0,0 l/m 0 min 0,0 UV-I 0 W/m 0,0 km/h (0 Bft)
08.02.2013 17:32 1,4 C -0,4 C 85 % 0 lf 1014,7 hPa 0,0 l/m 0 min 0,0 UV-I 0 W/m 0,0 km/h (0 Bft)
08.02.2013 17:34 1,4 C -0,4 C 85 % 0 lf 1014,8 hPa 0,0 l/m 0 min 0,0 UV-I 0 W/m 0,0 km/h (0 Bft)
08.02.2013 17:36 1,4 C -0,4 C 86 % 0 lf 1014,8 hPa 0,0 l/m 0 min 0,0 UV-I 0 W/m 0,0 km/h (0 Bft)
08.02.2013 17:38 1,3 C -0,4 C 86 % 0 lf 1014,8 hPa 0,0 l/m 0 min 0,0 UV-I 0 W/m 0,0 km/h (0 Bft)
08.02.2013 17:40 1,4 C -0,4 C 86 % 0 lf 1014,8 hPa 0,0 l/m 0 min 0,0 UV-I 0 W/m 0,0 km/h (0 Bft)
08.02.2013 17:42 1,3 C -0,4 C 86 % 0 lf 1014,8 hPa 0,0 l/m 0 min 0,0 UV-I 0 W/m 0,0 km/h (0 Bft)
08.02.2013 17:44 1,3 C -0,4 C 86 % 0 lf 1014,8 hPa 0,0 l/m 0 min 0,0 UV-I 0 W/m 0,0 km/h (0 Bft)
08.02.2013 17:46 1,3 C -0,4 C 86 % 0 lf 1014,9 hPa 0,0 l/m 0 min 0,0 UV-I 0 W/m 0,0 km/h (0 Bft)
08.02.2013 17:48 1,3 C -0,4 C 87 % 1 lf 1014,9 hPa 0,0 l/m 0 min 0,0 UV-I 0 W/m 15,4 km/h (3 Bft)
08.02.2013 17:50 1,3 C -0,4 C 87 % 2 lf 1015,0 hPa 0,0 l/m 0 min 0,0 UV-I 0 W/m 18,0 km/h (3 Bft)
08.02.2013 17:52 1,3 C -1,0 C 88 % 2 lf 1015,0 hPa 0,0 l/m 0 min 0,0 UV-I 0 W/m 18,0 km/h (3 Bft)
08.02.2013 17:54 1,3 C -1,0 C 89 % 4 lf 1015,2 hPa 0,0 l/m 0 min 0,0 UV-I 0 W/m 15,4 km/h (3 Bft)
08.02.2013 17:56 1,2 C -1,0 C 90 % 4 lf 1015,2 hPa 0,0 l/m 0 min 0,0 UV-I 0 W/m 15,4 km/h (3 Bft)
08.02.2013 17:58 1,1 C -1,0 C 91 % 5 lf 1015,3 hPa 0,0 l/m 0 min 0,0 UV-I 0 W/m 18,0 km/h (3 Bft)
08.02.2013 18:00 1,0 C -1,0 C 91 % 5 lf 1015,3 hPa 0,0 l/m 0 min 0,0 UV-I 0 W/m 12,9 km/h (3 Bft)
08.02.2013 18:02 0,9 C -1,0 C 91 % 4 lf 1015,3 hPa 0,0 l/m 0 min 0,0 UV-I 0 W/m 15,4 km/h (3 Bft)
08.02.2013 18:04 0,8 C -1,0 C 92 % 4 lf 1015,2 hPa 0,0 l/m 0 min 0,0 UV-I 0 W/m 18,0 km/h (3 Bft)
08.02.2013 18:06 0,7 C -1,0 C 92 % 3 lf 1015,3 hPa 0,0 l/m 0 min 0,0 UV-I 0 W/m 12,9 km/h (3 Bft)
08.02.2013 18:08 0,6 C -1,0 C 93 % 3 lf 1015,3 hPa 0,0 l/m 0 min 0,0 UV-I 0 W/m 7,7 km/h (2 Bft)
08.02.2013 18:10 0,6 C -1,0 C 93 % 2 lf 1015,4 hPa 0,0 l/m 0 min 0,0 UV-I 0 W/m 5,1 km/h (1 Bft)
08.02.2013 18:12 0,5 C -1,6 C 93 % 2 lf 1015,4 hPa 0,0 l/m 0 min 0,0 UV-I 0 W/m 0,0 km/h (0 Bft)
08.02.2013 18:14 0,4 C -1,6 C 93 % 2 lf 1015,5 hPa 0,0 l/m 0 min 0,0 UV-I 0 W/m 7,7 km/h (2 Bft)
08.02.2013 18:16 0,3 C -1,6 C 93 % 1 lf 1015,5 hPa 0,0 l/m 0 min 0,0 UV-I 0 W/m 2,6 km/h (1 Bft)
08.02.2013 18:18 0,3 C -1,6 C 93 % 1 lf 1015,5 hPa 0,0 l/m 0 min 0,0 UV-I 0 W/m 5,1 km/h (1 Bft)
08.02.2013 18:20 0,2 C -1,6 C 93 % 1 lf 1015,5 hPa 0,0 l/m 0 min 0,0 UV-I 0 W/m 10,3 km/h (2 Bft)
08.02.2013 18:22 0,2 C -1,6 C 93 % 1 lf 1015,5 hPa 0,0 l/m 0 min 0,0 UV-I 0 W/m 0,0 km/h (0 Bft)
08.02.2013 18:24 0,2 C -1,6 C 93 % 1 lf 1015,6 hPa 0,0 l/m 0 min 0,0 UV-I 0 W/m 0,0 km/h (0 Bft)
08.02.2013 18:26 0,1 C -1,6 C 93 % 1 lf 1015,6 hPa 0,0 l/m 0 min 0,0 UV-I 0 W/m 0,0 km/h (0 Bft)
08.02.2013 18:28 0,1 C -2,1 C 93 % 1 lf 1015,6 hPa 0,0 l/m 0 min 0,0 UV-I 0 W/m 0,0 km/h (0 Bft)
08.02.2013 18:30 0,0 C -2,1 C 94 % 1 lf 1015,6 hPa 0,0 l/m 0 min 0,0 UV-I 0 W/m 2,6 km/h (1 Bft)
08.02.2013 18:32 0,0 C -2,1 C 94 % 1 lf 1015,6 hPa 0,0 l/m 0 min 0,0 UV-I 0 W/m 0,0 km/h (0 Bft)
08.02.2013 18:34 -0,1 C -2,1 C 94 % 1 lf 1015,6 hPa 0,0 l/m 0 min 0,0 UV-I 0 W/m 2,6 km/h (1 Bft)
08.02.2013 18:36 -0,1 C -2,1 C 94 % 1 lf 1015,6 hPa 0,0 l/m 0 min 0,0 UV-I 0 W/m 0,0 km/h (0 Bft)
08.02.2013 18:38 -0,2 C -2,1 C 94 % 1 lf 1015,7 hPa 0,0 l/m 0 min 0,0 UV-I 0 W/m 0,0 km/h (0 Bft)
08.02.2013 18:40 -0,2 C -2,1 C 94 % 1 lf 1015,7 hPa 0,0 l/m 0 min 0,0 UV-I 0 W/m 0,0 km/h (0 Bft)
08.02.2013 18:42 -0,2 C -2,1 C 94 % 1 lf 1015,7 hPa 0,0 l/m 0 min 0,0 UV-I 0 W/m 0,0 km/h (0 Bft)
08.02.2013 18:44 -0,3 C -2,1 C 94 % 1 lf 1015,6 hPa 0,0 l/m 0 min 0,0 UV-I 0 W/m 0,0 km/h (0 Bft)
08.02.2013 18:46 -0,3 C -2,1 C 94 % 1 lf 1015,6 hPa 0,0 l/m 0 min 0,0 UV-I 0 W/m 0,0 km/h (0 Bft)
08.02.2013 18:48 -0,3 C -2,1 C 94 % 1 lf 1015,6 hPa 0,0 l/m 0 min 0,0 UV-I 0 W/m 0,0 km/h (0 Bft)
08.02.2013 18:50 -0,3 C -2,1 C 94 % 1 lf 1015,6 hPa 0,2 l/m 0 min 0,0 UV-I 0 W/m 0,0 km/h (0 Bft)
08.02.2013 18:52 -0,3 C -2,1 C 94 % 1 lf 1015,6 hPa 0,2 l/m 0 min 0,0 UV-I 0 W/m 0,0 km/h (0 Bft)
08.02.2013 18:54 -0,4 C -2,1 C 94 % 1 lf 1015,7 hPa 0,0 l/m 0 min 0,0 UV-I 0 W/m 0,0 km/h (0 Bft)
08.02.2013 18:56 -0,4 C -1,6 C 94 % 1 lf 1015,7 hPa 0,2 l/m 0 min 0,0 UV-I 0 W/m 0,0 km/h (0 Bft)
08.02.2013 18:58 -0,4 C -1,6 C 95 % 1 lf 1015,7 hPa 0,0 l/m 0 min 0,0 UV-I 0 W/m 0,0 km/h (0 Bft)
08.02.2013 19:00 -0,4 C -1,6 C 95 % 1 lf 1015,7 hPa 0,2 l/m 0 min 0,0 UV-I 0 W/m 0,0 km/h (0 Bft)
08.02.2013 19:02 -0,4 C -2,1 C 95 % 1 lf 1015,7 hPa 0,0 l/m 0 min 0,0 UV-I 0 W/m 0,0 km/h (0 Bft)
08.02.2013 19:04 -0,4 C -2,1 C 95 % 1 lf 1015,7 hPa 0,0 l/m 0 min 0,0 UV-I 0 W/m 0,0 km/h (0 Bft)
08.02.2013 19:06 -0,4 C -2,1 C 95 % 1 lf 1015,7 hPa 0,0 l/m 0 min 0,0 UV-I 0 W/m 0,0 km/h (0 Bft)
08.02.2013 19:08 -0,4 C -2,1 C 95 % 1 lf 1015,7 hPa 0,0 l/m 0 min 0,0 UV-I 0 W/m 0,0 km/h (0 Bft)
08.02.2013 19:10 -0,5 C -1,6 C 95 % 1 lf 1015,8 hPa 0,0 l/m 0 min 0,0 UV-I 0 W/m 0,0 km/h (0 Bft)
08.02.2013 19:12 -0,5 C -2,1 C 95 % 1 lf 1015,8 hPa 0,0 l/m 0 min 0,0 UV-I 0 W/m 0,0 km/h (0 Bft)
08.02.2013 19:14 -0,5 C -2,1 C 95 % 1 lf 1015,8 hPa 0,0 l/m 0 min 0,0 UV-I 0 W/m 0,0 km/h (0 Bft)
08.02.2013 19:16 -0,5 C -2,1 C 95 % 1 lf 1015,8 hPa 0,0 l/m 0 min 0,0 UV-I 0 W/m 0,0 km/h (0 Bft)
08.02.2013 19:18 -0,5 C -2,1 C 95 % 1 lf 1015,9 hPa 0,0 l/m 0 min 0,0 UV-I 0 W/m 0,0 km/h (0 Bft)
08.02.2013 19:20 -0,5 C -2,1 C 95 % 1 lf 1015,8 hPa 0,0 l/m 0 min 0,0 UV-I 0 W/m 2,6 km/h (1 Bft)
08.02.2013 19:22 -0,6 C -2,1 C 95 % 1 lf 1015,9 hPa 0,0 l/m 0 min 0,0 UV-I 0 W/m 0,0 km/h (0 Bft)
08.02.2013 19:24 -0,6 C -2,1 C 95 % 1 lf 1016,0 hPa 0,0 l/m 0 min 0,0 UV-I 0 W/m 0,0 km/h (0 Bft)
08.02.2013 19:26 -0,6 C -2,1 C 95 % 1 lf 1016,0 hPa 0,0 l/m 0 min 0,0 UV-I 0 W/m 0,0 km/h (0 Bft)
08.02.2013 19:28 -0,6 C -2,1 C 95 % 1 lf 1016,1 hPa 0,0 l/m 0 min 0,0 UV-I 0 W/m 0,0 km/h (0 Bft)
08.02.2013 19:30 -0,6 C -2,1 C 95 % 1 lf 1016,1 hPa 0,0 l/m 0 min 0,0 UV-I 0 W/m 0,0 km/h (0 Bft)
08.02.2013 19:32 -0,6 C -2,1 C 95 % 1 lf 1016,1 hPa 0,0 l/m 0 min 0,0 UV-I 0 W/m 0,0 km/h (0 Bft)
08.02.2013 19:34 -0,6 C -2,1 C 95 % 1 lf 1016,1 hPa 0,0 l/m 0 min 0,0 UV-I 0 W/m 0,0 km/h (0 Bft)
08.02.2013 19:36 -0,6 C -2,1 C 95 % 1 lf 1016,1 hPa 0,0 l/m 0 min 0,0 UV-I 0 W/m 0,0 km/h (0 Bft)
08.02.2013 19:38 -0,6 C -2,1 C 95 % 1 lf 1016,1 hPa 0,0 l/m 0 min 0,0 UV-I 0 W/m 0,0 km/h (0 Bft)
08.02.2013 19:40 -0,6 C -2,1 C 95 % 1 lf 1016,1 hPa 0,0 l/m 0 min 0,0 UV-I 0 W/m 0,0 km/h (0 Bft)
08.02.2013 19:42 -0,6 C -2,1 C 95 % 1 lf 1016,1 hPa 0,0 l/m 0 min 0,0 UV-I 0 W/m 0,0 km/h (0 Bft)
08.02.2013 19:44 -0,6 C -2,1 C 95 % 1 lf 1016,2 hPa 0,0 l/m 0 min 0,0 UV-I 0 W/m 0,0 km/h (0 Bft)
08.02.2013 19:46 -0,7 C -2,1 C 95 % 1 lf 1016,2 hPa 0,0 l/m 0 min 0,0 UV-I 0 W/m 0,0 km/h (0 Bft)
08.02.2013 19:48 -0,7 C -2,1 C 96 % 1 lf 1016,2 hPa 0,0 l/m 0 min 0,0 UV-I 0 W/m 0,0 km/h (0 Bft)
08.02.2013 19:50 -0,7 C -2,1 C 96 % 1 lf 1016,2 hPa 0,0 l/m 0 min 0,0 UV-I 0 W/m 0,0 km/h (0 Bft)
08.02.2013 19:52 -0,7 C -2,1 C 96 % 1 lf 1016,1 hPa 0,0 l/m 0 min 0,0 UV-I 0 W/m 2,6 km/h (1 Bft)
08.02.2013 19:54 -0,7 C -2,1 C 96 % 1 lf 1016,2 hPa 0,0 l/m 0 min 0,0 UV-I 0 W/m 0,0 km/h (0 Bft)
08.02.2013 19:56 -0,7 C -2,1 C 96 % 1 lf 1016,1 hPa 0,0 l/m 0 min 0,0 UV-I 0 W/m 0,0 km/h (0 Bft)
08.02.2013 19:58 -0,7 C -2,1 C 96 % 1 lf 1016,1 hPa 0,0 l/m 0 min 0,0 UV-I 0 W/m 0,0 km/h (0 Bft)
08.02.2013 20:00 -0,7 C -2,1 C 96 % 1 lf 1016,2 hPa 0,0 l/m 0 min 0,0 UV-I 0 W/m 0,0 km/h (0 Bft)
08.02.2013 20:02 -0,7 C -2,1 C 96 % 1 lf 1016,1 hPa 0,0 l/m 0 min 0,0 UV-I 0 W/m 0,0 km/h (0 Bft)
08.02.2013 20:04 -0,7 C -2,1 C 96 % 1 lf 1016,2 hPa 0,0 l/m 0 min 0,0 UV-I 0 W/m 0,0 km/h (0 Bft)
08.02.2013 20:06 -0,7 C -2,1 C 96 % 1 lf 1016,1 hPa 0,0 l/m 0 min 0,0 UV-I 0 W/m 2,6 km/h (1 Bft)
08.02.2013 20:08 -0,7 C -2,1 C 96 % 1 lf 1016,2 hPa 0,0 l/m 0 min 0,0 UV-I 0 W/m 0,0 km/h (0 Bft)
08.02.2013 20:10 -0,7 C -2,1 C 96 % 1 lf 1016,3 hPa 0,0 l/m 0 min 0,0 UV-I 0 W/m 0,0 km/h (0 Bft)
08.02.2013 20:12 -0,7 C -2,1 C 96 % 1 lf 1016,2 hPa 0,0 l/m 0 min 0,0 UV-I 0 W/m 0,0 km/h (0 Bft)
08.02.2013 20:14 -0,7 C -1,6 C 96 % 1 lf 1016,3 hPa 0,0 l/m 0 min 0,0 UV-I 0 W/m 0,0 km/h (0 Bft)
08.02.2013 20:16 -0,7 C -1,6 C 96 % 1 lf 1016,3 hPa 0,0 l/m 0 min 0,0 UV-I 0 W/m 0,0 km/h (0 Bft)
08.02.2013 20:18 -0,7 C -1,6 C 96 % 1 lf 1016,3 hPa 0,0 l/m 0 min 0,0 UV-I 0 W/m 0,0 km/h (0 Bft)
08.02.2013 20:20 -0,7 C -1,6 C 96 % 1 lf 1016,3 hPa 0,0 l/m 0 min 0,0 UV-I 0 W/m 0,0 km/h (0 Bft)
08.02.2013 20:22 -0,7 C -1,6 C 96 % 1 lf 1016,3 hPa 0,0 l/m 0 min 0,0 UV-I 0 W/m 0,0 km/h (0 Bft)
08.02.2013 20:24 -0,6 C -1,6 C 96 % 1 lf 1016,3 hPa 0,0 l/m 0 min 0,0 UV-I 0 W/m 0,0 km/h (0 Bft)
08.02.2013 20:26 -0,6 C -1,6 C 96 % 1 lf 1016,3 hPa 0,0 l/m 0 min 0,0 UV-I 0 W/m 0,0 km/h (0 Bft)
08.02.2013 20:28 -0,6 C -1,6 C 96 % 1 lf 1016,3 hPa 0,0 l/m 0 min 0,0 UV-I 0 W/m 2,6 km/h (1 Bft)
08.02.2013 20:30 -0,6 C -1,6 C 96 % 1 lf 1016,3 hPa 0,0 l/m 0 min 0,0 UV-I 0 W/m 0,0 km/h (0 Bft)
08.02.2013 20:32 -0,6 C -1,6 C 96 % 1 lf 1016,3 hPa 0,0 l/m 0 min 0,0 UV-I 0 W/m 0,0 km/h (0 Bft)
08.02.2013 20:34 -0,6 C -1,6 C 96 % 1 lf 1016,3 hPa 0,0 l/m 0 min 0,0 UV-I 0 W/m 0,0 km/h (0 Bft)
08.02.2013 20:36 -0,6 C -1,6 C 96 % 1 lf 1016,3 hPa 0,0 l/m 0 min 0,0 UV-I 0 W/m 5,1 km/h (1 Bft)
08.02.2013 20:38 -0,6 C -1,6 C 96 % 1 lf 1016,4 hPa 0,0 l/m 0 min 0,0 UV-I 0 W/m 0,0 km/h (0 Bft)
08.02.2013 20:40 -0,6 C -1,6 C 96 % 1 lf 1016,4 hPa 0,0 l/m 0 min 0,0 UV-I 0 W/m 0,0 km/h (0 Bft)
08.02.2013 20:42 -0,6 C -1,6 C 97 % 1 lf 1016,4 hPa 0,0 l/m 0 min 0,0 UV-I 0 W/m 0,0 km/h (0 Bft)
08.02.2013 20:44 -0,6 C -1,6 C 97 % 1 lf 1016,3 hPa 0,0 l/m 0 min 0,0 UV-I 0 W/m 0,0 km/h (0 Bft)
08.02.2013 20:46 -0,6 C -1,6 C 97 % 1 lf 1016,3 hPa 0,0 l/m 0 min 0,0 UV-I 0 W/m 5,1 km/h (1 Bft)
08.02.2013 20:48 -0,6 C -1,6 C 97 % 1 lf 1016,4 hPa 0,0 l/m 0 min 0,0 UV-I 0 W/m 0,0 km/h (0 Bft)
08.02.2013 20:50 -0,6 C -1,6 C 97 % 1 lf 1016,4 hPa 0,0 l/m 0 min 0,0 UV-I 0 W/m 5,1 km/h (1 Bft)
08.02.2013 20:52 -0,6 C -1,6 C 97 % 1 lf 1016,4 hPa 0,0 l/m 0 min 0,0 UV-I 0 W/m 5,1 km/h (1 Bft)
08.02.2013 20:54 -0,6 C -1,6 C 97 % 1 lf 1016,4 hPa 0,0 l/m 0 min 0,0 UV-I 0 W/m 0,0 km/h (0 Bft)
08.02.2013 20:56 -0,6 C -1,6 C 97 % 1 lf 1016,4 hPa 0,0 l/m 0 min 0,0 UV-I 0 W/m 0,0 km/h (0 Bft)
08.02.2013 20:58 -0,6 C -2,1 C 97 % 1 lf 1016,4 hPa 0,0 l/m 0 min 0,0 UV-I 0 W/m 5,1 km/h (1 Bft)
08.02.2013 21:00 -0,6 C -2,1 C 97 % 1 lf 1016,4 hPa 0,0 l/m 0 min 0,0 UV-I 0 W/m 0,0 km/h (0 Bft)
08.02.2013 21:02 -0,6 C -2,1 C 97 % 1 lf 1016,4 hPa 0,0 l/m 0 min 0,0 UV-I 0 W/m 0,0 km/h (0 Bft)
08.02.2013 21:04 -0,6 C -2,1 C 97 % 1 lf 1016,4 hPa 0,0 l/m 0 min 0,0 UV-I 0 W/m 0,0 km/h (0 Bft)
08.02.2013 21:06 -0,6 C -2,1 C 97 % 1 lf 1016,4 hPa 0,0 l/m 0 min 0,0 UV-I 0 W/m 0,0 km/h (0 Bft)
08.02.2013 21:08 -0,6 C -2,1 C 97 % 1 lf 1016,4 hPa 0,0 l/m 0 min 0,0 UV-I 0 W/m 0,0 km/h (0 Bft)
08.02.2013 21:10 -0,6 C -2,1 C 97 % 0 lf 1016,5 hPa 0,0 l/m 0 min 0,0 UV-I 0 W/m 0,0 km/h (0 Bft)
08.02.2013 21:12 -0,6 C -2,1 C 97 % 1 lf 1016,5 hPa 0,0 l/m 0 min 0,0 UV-I 0 W/m 0,0 km/h (0 Bft)
08.02.2013 21:14 -0,6 C -2,1 C 97 % 1 lf 1016,5 hPa 0,0 l/m 0 min 0,0 UV-I 0 W/m 0,0 km/h (0 Bft)
08.02.2013 21:16 -0,7 C -2,1 C 97 % 1 lf 1016,6 hPa 0,0 l/m 0 min 0,0 UV-I 0 W/m 0,0 km/h (0 Bft)
08.02.2013 21:18 -0,6 C -2,1 C 97 % 1 lf 1016,6 hPa 0,0 l/m 0 min 0,0 UV-I 0 W/m 0,0 km/h (0 Bft)
08.02.2013 21:20 -0,7 C -2,1 C 97 % 1 lf 1016,6 hPa 0,0 l/m 0 min 0,0 UV-I 0 W/m 0,0 km/h (0 Bft)
08.02.2013 21:22 -0,7 C -2,1 C 97 % 0 lf 1016,6 hPa 0,0 l/m 0 min 0,0 UV-I 0 W/m 0,0 km/h (0 Bft)
08.02.2013 21:24 -0,7 C -2,1 C 97 % 0 lf 1016,6 hPa 0,0 l/m 0 min 0,0 UV-I 0 W/m 0,0 km/h (0 Bft)
08.02.2013 21:26 -0,7 C -2,1 C 97 % 0 lf 1016,6 hPa 0,0 l/m 0 min 0,0 UV-I 0 W/m 0,0 km/h (0 Bft)
08.02.2013 21:28 -0,7 C -2,1 C 97 % 0 lf 1016,5 hPa 0,0 l/m 0 min 0,0 UV-I 0 W/m 0,0 km/h (0 Bft)
08.02.2013 21:30 -0,7 C -2,7 C 97 % 0 lf 1016,6 hPa 0,0 l/m 0 min 0,0 UV-I 0 W/m 0,0 km/h (0 Bft)
08.02.2013 21:32 -0,7 C -2,7 C 97 % 0 lf 1016,6 hPa 0,0 l/m 0 min 0,0 UV-I 0 W/m 0,0 km/h (0 Bft)
08.02.2013 21:34 -0,7 C -2,7 C 97 % 0 lf 1016,6 hPa 0,0 l/m 0 min 0,0 UV-I 0 W/m 0,0 km/h (0 Bft)
08.02.2013 21:36 -0,8 C -2,7 C 97 % 0 lf 1016,6 hPa 0,0 l/m 0 min 0,0 UV-I 0 W/m 0,0 km/h (0 Bft)
08.02.2013 21:38 -0,8 C -2,1 C 97 % 0 lf 1016,6 hPa 0,0 l/m 0 min 0,0 UV-I 0 W/m 0,0 km/h (0 Bft)
08.02.2013 21:40 -0,8 C -2,7 C 97 % 0 lf 1016,6 hPa 0,0 l/m 0 min 0,0 UV-I 0 W/m 0,0 km/h (0 Bft)
08.02.2013 21:42 -0,8 C -2,7 C 97 % 0 lf 1016,6 hPa 0,0 l/m 0 min 0,0 UV-I 0 W/m 0,0 km/h (0 Bft)
08.02.2013 21:44 -0,8 C -2,7 C 97 % 0 lf 1016,7 hPa 0,0 l/m 0 min 0,0 UV-I 0 W/m 0,0 km/h (0 Bft)
08.02.2013 21:46 -0,8 C -2,7 C 97 % 0 lf 1016,7 hPa 0,0 l/m 0 min 0,0 UV-I 0 W/m 0,0 km/h (0 Bft)
08.02.2013 21:48 -0,9 C -2,7 C 97 % 0 lf 1016,7 hPa 0,0 l/m 0 min 0,0 UV-I 0 W/m 0,0 km/h (0 Bft)
08.02.2013 21:50 -0,9 C -2,7 C 97 % 0 lf 1016,7 hPa 0,0 l/m 0 min 0,0 UV-I 0 W/m 0,0 km/h (0 Bft)
08.02.2013 21:52 -0,9 C -2,7 C 97 % 0 lf 1016,6 hPa 0,0 l/m 0 min 0,0 UV-I 0 W/m 0,0 km/h (0 Bft)
08.02.2013 21:54 -0,9 C -2,7 C 97 % 0 lf 1016,7 hPa 0,0 l/m 0 min 0,0 UV-I 0 W/m 0,0 km/h (0 Bft)
08.02.2013 21:56 -1,0 C -2,7 C 97 % 0 lf 1016,6 hPa 0,0 l/m 0 min 0,0 UV-I 0 W/m 0,0 km/h (0 Bft)
08.02.2013 21:58 -1,0 C -2,7 C 97 % 0 lf 1016,7 hPa 0,0 l/m 0 min 0,0 UV-I 0 W/m 0,0 km/h (0 Bft)
08.02.2013 22:00 -1,1 C -2,7 C 97 % 0 lf 1016,7 hPa 0,0 l/m 0 min 0,0 UV-I 0 W/m 0,0 km/h (0 Bft)
08.02.2013 22:02 -1,1 C -2,7 C 97 % 0 lf 1016,8 hPa 0,0 l/m 0 min 0,0 UV-I 0 W/m 0,0 km/h (0 Bft)
08.02.2013 22:04 -1,1 C -2,7 C 97 % 0 lf 1016,7 hPa 0,0 l/m 0 min 0,0 UV-I 0 W/m 0,0 km/h (0 Bft)
08.02.2013 22:06 -1,1 C -2,7 C 97 % 0 lf 1016,8 hPa 0,0 l/m 0 min 0,0 UV-I 0 W/m 0,0 km/h (0 Bft)
08.02.2013 22:08 -1,1 C -2,7 C 97 % 0 lf 1016,8 hPa 0,0 l/m 0 min 0,0 UV-I 0 W/m 0,0 km/h (0 Bft)
08.02.2013 22:10 -1,2 C -2,7 C 97 % 0 lf 1016,8 hPa 0,0 l/m 0 min 0,0 UV-I 0 W/m 0,0 km/h (0 Bft)
08.02.2013 22:12 -1,2 C -2,7 C 97 % 0 lf 1016,8 hPa 0,0 l/m 0 min 0,0 UV-I 0 W/m 0,0 km/h (0 Bft)
08.02.2013 22:14 -1,2 C -2,7 C 97 % 0 lf 1016,8 hPa 0,0 l/m 0 min 0,0 UV-I 0 W/m 0,0 km/h (0 Bft)
08.02.2013 22:16 -1,2 C -3,2 C 97 % 0 lf 1016,8 hPa 0,0 l/m 0 min 0,0 UV-I 0 W/m 0,0 km/h (0 Bft)
08.02.2013 22:18 -1,2 C -3,2 C 97 % 0 lf 1016,8 hPa 0,0 l/m 0 min 0,0 UV-I 0 W/m 0,0 km/h (0 Bft)
08.02.2013 22:20 -1,3 C -2,7 C 97 % 0 lf 1016,8 hPa 0,0 l/m 0 min 0,0 UV-I 0 W/m 0,0 km/h (0 Bft)
08.02.2013 22:22 -1,3 C -3,2 C 97 % 0 lf 1016,9 hPa 0,0 l/m 0 min 0,0 UV-I 0 W/m 2,6 km/h (1 Bft)
08.02.2013 22:24 -1,3 C -2,7 C 97 % 0 lf 1016,8 hPa 0,0 l/m 0 min 0,0 UV-I 0 W/m 0,0 km/h (0 Bft)
08.02.2013 22:26 -1,3 C -2,7 C 97 % 0 lf 1016,8 hPa 0,0 l/m 0 min 0,0 UV-I 0 W/m 0,0 km/h (0 Bft)
08.02.2013 22:28 -1,3 C -3,2 C 97 % 0 lf 1016,8 hPa 0,0 l/m 0 min 0,0 UV-I 0 W/m 0,0 km/h (0 Bft)
08.02.2013 22:30 -1,3 C -3,2 C 97 % 0 lf 1016,9 hPa 0,0 l/m 0 min 0,0 UV-I 0 W/m 0,0 km/h (0 Bft)
08.02.2013 22:32 -1,4 C -3,2 C 97 % 0 lf 1016,9 hPa 0,0 l/m 0 min 0,0 UV-I 0 W/m 0,0 km/h (0 Bft)
08.02.2013 22:34 -1,4 C -3,2 C 97 % 0 lf 1016,8 hPa 0,0 l/m 0 min 0,0 UV-I 0 W/m 0,0 km/h (0 Bft)
08.02.2013 22:36 -1,4 C -3,2 C 97 % 0 lf 1016,9 hPa 0,0 l/m 0 min 0,0 UV-I 0 W/m 0,0 km/h (0 Bft)
08.02.2013 22:38 -1,4 C -3,2 C 97 % 0 lf 1016,9 hPa 0,0 l/m 0 min 0,0 UV-I 0 W/m 0,0 km/h (0 Bft)
08.02.2013 22:40 -1,4 C -3,2 C 97 % 0 lf 1016,9 hPa 0,0 l/m 0 min 0,0 UV-I 0 W/m 0,0 km/h (0 Bft)
08.02.2013 22:42 -1,5 C -3,2 C 97 % 0 lf 1016,9 hPa 0,0 l/m 0 min 0,0 UV-I 0 W/m 0,0 km/h (0 Bft)
08.02.2013 22:44 -1,5 C -3,2 C 97 % 0 lf 1016,9 hPa 0,0 l/m 0 min 0,0 UV-I 0 W/m 0,0 km/h (0 Bft)
08.02.2013 22:46 -1,5 C -2,7 C 97 % 0 lf 1017,0 hPa 0,0 l/m 0 min 0,0 UV-I 0 W/m 0,0 km/h (0 Bft)
08.02.2013 22:48 -1,5 C -2,7 C 97 % 0 lf 1017,0 hPa 0,0 l/m 0 min 0,0 UV-I 0 W/m 0,0 km/h (0 Bft)
08.02.2013 22:50 -1,6 C -2,7 C 97 % 0 lf 1017,0 hPa 0,0 l/m 0 min 0,0 UV-I 0 W/m 0,0 km/h (0 Bft)
08.02.2013 22:52 -1,6 C -2,7 C 97 % 0 lf 1017,1 hPa 0,0 l/m 0 min 0,0 UV-I 0 W/m 0,0 km/h (0 Bft)
08.02.2013 22:54 -1,6 C -2,7 C 97 % 0 lf 1017,0 hPa 0,0 l/m 0 min 0,0 UV-I 0 W/m 0,0 km/h (0 Bft)
08.02.2013 22:56 -1,6 C -2,7 C 97 % 0 lf 1017,0 hPa 0,0 l/m 0 min 0,0 UV-I 0 W/m 0,0 km/h (0 Bft)
08.02.2013 22:58 -1,6 C -2,7 C 97 % 0 lf 1017,0 hPa 0,0 l/m 0 min 0,0 UV-I 0 W/m 0,0 km/h (0 Bft)
08.02.2013 23:00 -1,6 C -2,7 C 97 % 0 lf 1017,1 hPa 0,0 l/m 0 min 0,0 UV-I 0 W/m 0,0 km/h (0 Bft)
08.02.2013 23:02 -1,6 C -2,7 C 97 % 0 lf 1017,1 hPa 0,0 l/m 0 min 0,0 UV-I 0 W/m 0,0 km/h (0 Bft)
08.02.2013 23:04 -1,6 C -2,7 C 97 % 0 lf 1017,1 hPa 0,0 l/m 0 min 0,0 UV-I 0 W/m 0,0 km/h (0 Bft)
08.02.2013 23:06 -1,6 C -2,7 C 97 % 0 lf 1017,1 hPa 0,0 l/m 0 min 0,0 UV-I 0 W/m 0,0 km/h (0 Bft)
08.02.2013 23:08 -1,6 C -2,7 C 97 % 0 lf 1017,2 hPa 0,0 l/m 0 min 0,0 UV-I 0 W/m 5,1 km/h (1 Bft)
08.02.2013 23:10 -1,6 C -2,7 C 97 % 0 lf 1017,1 hPa 0,0 l/m 0 min 0,0 UV-I 0 W/m 0,0 km/h (0 Bft)
08.02.2013 23:12 -1,6 C -2,7 C 97 % 0 lf 1017,2 hPa 0,0 l/m 0 min 0,0 UV-I 0 W/m 0,0 km/h (0 Bft)
08.02.2013 23:14 -1,6 C -2,7 C 97 % 0 lf 1017,2 hPa 0,0 l/m 0 min 0,0 UV-I 0 W/m 0,0 km/h (0 Bft)
08.02.2013 23:16 -1,6 C -2,7 C 97 % 0 lf 1017,2 hPa 0,0 l/m 0 min 0,0 UV-I 0 W/m 0,0 km/h (0 Bft)
08.02.2013 23:18 -1,6 C -2,7 C 97 % 0 lf 1017,2 hPa 0,0 l/m 0 min 0,0 UV-I 0 W/m 0,0 km/h (0 Bft)
08.02.2013 23:20 -1,6 C -2,7 C 97 % 0 lf 1017,2 hPa 0,0 l/m 0 min 0,0 UV-I 0 W/m 0,0 km/h (0 Bft)
08.02.2013 23:22 -1,6 C -2,7 C 97 % 0 lf 1017,2 hPa 0,0 l/m 0 min 0,0 UV-I 0 W/m 0,0 km/h (0 Bft)
08.02.2013 23:24 -1,6 C -2,7 C 97 % 0 lf 1017,2 hPa 0,0 l/m 0 min 0,0 UV-I 0 W/m 0,0 km/h (0 Bft)
08.02.2013 23:26 -1,6 C -2,1 C 97 % 0 lf 1017,2 hPa 0,0 l/m 0 min 0,0 UV-I 0 W/m 0,0 km/h (0 Bft)
08.02.2013 23:28 -1,6 C -2,1 C 97 % 0 lf 1017,2 hPa 0,0 l/m 0 min 0,0 UV-I 0 W/m 0,0 km/h (0 Bft)
08.02.2013 23:30 -1,6 C -2,1 C 97 % 0 lf 1017,2 hPa 0,0 l/m 0 min 0,0 UV-I 0 W/m 0,0 km/h (0 Bft)
08.02.2013 23:32 -1,6 C -2,1 C 97 % 0 lf 1017,2 hPa 0,0 l/m 0 min 0,0 UV-I 0 W/m 0,0 km/h (0 Bft)
08.02.2013 23:34 -1,5 C -2,1 C 97 % 0 lf 1017,3 hPa 0,0 l/m 0 min 0,0 UV-I 0 W/m 0,0 km/h (0 Bft)
08.02.2013 23:36 -1,5 C -2,1 C 97 % 0 lf 1017,2 hPa 0,0 l/m 0 min 0,0 UV-I 0 W/m 0,0 km/h (0 Bft)
08.02.2013 23:38 -1,5 C -2,1 C 97 % 0 lf 1017,3 hPa 0,0 l/m 0 min 0,0 UV-I 0 W/m 0,0 km/h (0 Bft)
08.02.2013 23:40 -1,4 C -2,1 C 97 % 0 lf 1017,3 hPa 0,0 l/m 0 min 0,0 UV-I 0 W/m 0,0 km/h (0 Bft)
08.02.2013 23:42 -1,4 C -2,1 C 97 % 0 lf 1017,3 hPa 0,0 l/m 0 min 0,0 UV-I 0 W/m 0,0 km/h (0 Bft)
08.02.2013 23:44 -1,4 C -2,1 C 97 % 0 lf 1017,3 hPa 0,0 l/m 0 min 0,0 UV-I 0 W/m 0,0 km/h (0 Bft)
08.02.2013 23:46 -1,4 C -2,1 C 97 % 0 lf 1017,3 hPa 0,0 l/m 0 min 0,0 UV-I 0 W/m 0,0 km/h (0 Bft)
08.02.2013 23:48 -1,4 C -2,1 C 97 % 0 lf 1017,3 hPa 0,0 l/m 0 min 0,0 UV-I 0 W/m 0,0 km/h (0 Bft)
08.02.2013 23:50 -1,4 C -2,1 C 97 % 0 lf 1017,3 hPa 0,0 l/m 0 min 0,0 UV-I 0 W/m 0,0 km/h (0 Bft)
08.02.2013 23:52 -1,4 C -2,1 C 97 % 0 lf 1017,3 hPa 0,0 l/m 0 min 0,0 UV-I 0 W/m 0,0 km/h (0 Bft)
08.02.2013 23:54 -1,3 C -2,1 C 98 % 0 lf 1017,3 hPa 0,0 l/m 0 min 0,0 UV-I 0 W/m 0,0 km/h (0 Bft)
08.02.2013 23:56 -1,3 C -2,1 C 98 % 1 lf 1017,3 hPa 0,0 l/m 0 min 0,0 UV-I 0 W/m 0,0 km/h (0 Bft)
08.02.2013 23:58 -1,3 C -2,1 C 98 % 1 lf 1017,3 hPa 0,0 l/m 0 min 0,0 UV-I 0 W/m 0,0 km/h (0 Bft)
_ Min-Zeit 22:50 22:16 16:08 00:00 03:36 - - - - 00:02
Minimum _ -1,6 C -3,2 C 81 % 0 lf 1010,4 hPa - - - - 0,0 km/h (0 Bft)
_ Max-Zeit 14:40 14:00 08:20 01:36 23:34 05:34 14:14 00:00 14:14 01:36
Maximum _ 2,7 C 1,8 C 100 % 15 lf 1017,3 hPa 0,2 l/m 2 min 0,0 UV-I 424 W/m 18,0 km/h
SW (3 Bft)
Durchschnitt _ 0,5 C -0,7 C 95 % 6 lf 1013,7 hPa #3,2 l/m #34 min. 0,0 UV-I 96 W/m 4,0 km/h (1 Bft)
© 2013 W. Hausmann